Wetterdaten: aktuell Samstag, 24.07.2021 22:40
Datum Zeit Temp. I. Temp. 2m Temp. 5cm Temp. Gr 2m LF I. Luftf.2m LG Graben Luftdruck Regen Wind Richtung Richtung Taupunkt Windchill Windben
24.07.2021 22:40 25,6 C 17,7 C 17,9 C 17,7 C 55 % 88 % 86 % 1018,1 hPa 0,0 l/m 10,9 km/h (2 Bft) NO 45 15,7 C 15,8 C 16,4 km/h (3 Bft)
24.07.2021 22:38 25,6 C 17,6 C 17,9 C 17,7 C 55 % 88 % 85 % 1017,1 hPa 0,7 l/m 9,7 km/h (2 Bft) O-SO 112 15,6 C 16,1 C 13,3 km/h (3 Bft)
24.07.2021 22:36 25,6 C 17,6 C 17,9 C 17,7 C 55 % 88 % 85 % 1017,1 hPa 0,0 l/m 8,4 km/h (2 Bft) W-SW 247 15,6 C 16,7 C 56,0 km/h (7 Bft)
24.07.2021 22:34 25,6 C 17,6 C 17,9 C 17,7 C 55 % 87 % 85 % 1017,1 hPa 0,0 l/m 6,9 km/h (2 Bft) SO 135 15,4 C 17,4 C 56,0 km/h (7 Bft)
24.07.2021 22:32 25,6 C 17,6 C 17,8 C 17,7 C 55 % 86 % 84 % 1017,1 hPa 0,0 l/m 4,8 km/h (1 Bft) NO 45 15,2 C 17,6 C 56,0 km/h (7 Bft)
24.07.2021 22:30 25,6 C 17,7 C 17,9 C 17,7 C 55 % 84 % 84 % 1017,1 hPa 0,0 l/m 1,8 km/h (1 Bft) N-NO 22 15,0 C 17,7 C 5,6 km/h (1 Bft)
24.07.2021 22:28 25,6 C 17,7 C 18,0 C 17,7 C 55 % 84 % 84 % 1017,1 hPa 0,7 l/m 2,9 km/h (1 Bft) N 360 15,0 C 17,7 C 2,9 km/h (1 Bft)
24.07.2021 22:26 25,6 C 17,7 C 17,9 C 17,7 C 55 % 84 % 84 % 1017,1 hPa 0,0 l/m 3,9 km/h (1 Bft) O-NO 67 15,0 C 17,7 C 2,9 km/h (1 Bft)
24.07.2021 22:24 25,6 C 17,7 C 17,9 C 17,7 C 55 % 84 % 84 % 1017,1 hPa 0,0 l/m 5,6 km/h (1 Bft) S-SO 157 15,0 C 17,7 C 3,6 km/h (1 Bft)
24.07.2021 22:22 25,6 C 17,7 C 17,8 C 17,7 C 55 % 84 % 83 % 1017,1 hPa 0,0 l/m 6,8 km/h (2 Bft) SW 225 15,0 C 17,5 C 7,7 km/h (2 Bft)
24.07.2021 22:20 25,6 C 17,7 C 17,8 C 17,8 C 55 % 84 % 83 % 1017,1 hPa 0,0 l/m 7,6 km/h (2 Bft) S-SO 157 15,0 C 17,1 C 14,0 km/h (3 Bft)
24.07.2021 22:18 25,6 C 17,7 C 17,8 C 17,8 C 55 % 83 % 83 % 1016,9 hPa 0,0 l/m 7,9 km/h (2 Bft) SW 225 14,8 C 17,0 C 14,0 km/h (3 Bft)
24.07.2021 22:16 25,6 C 17,7 C 17,8 C 17,8 C 55 % 83 % 83 % 1016,9 hPa 0,7 l/m 7,7 km/h (2 Bft) W-SW 247 14,8 C 17,1 C 13,0 km/h (3 Bft)
24.07.2021 22:14 25,5 C 17,8 C 17,8 C 17,9 C 55 % 83 % 83 % 1016,9 hPa 0,0 l/m 7,1 km/h (2 Bft) W-SW 247 14,9 C 17,5 C 13,8 km/h (3 Bft)
24.07.2021 22:12 25,5 C 17,9 C 17,8 C 17,9 C 55 % 83 % 83 % 1016,9 hPa 0,0 l/m 5,3 km/h (1 Bft) SW 225 15,0 C 17,9 C 15,7 km/h (3 Bft)
24.07.2021 22:10 25,5 C 18,0 C 17,9 C 18,0 C 55 % 82 % 82 % 1016,9 hPa 0,0 l/m 4,3 km/h (1 Bft) SW 225 14,9 C 18,0 C 15,7 km/h (3 Bft)
24.07.2021 22:08 25,5 C 18,1 C 18,0 C 17,9 C 55 % 82 % 82 % 1016,9 hPa 0,0 l/m 3,9 km/h (1 Bft) W 270 15,0 C 18,1 C 12,6 km/h (3 Bft)
24.07.2021 22:06 25,5 C 18,2 C 18,0 C 18,0 C 55 % 82 % 82 % 1016,9 hPa 0,0 l/m 3,9 km/h (1 Bft) W-SW 247 15,1 C 18,2 C 9,9 km/h (2 Bft)
24.07.2021 22:04 25,5 C 18,2 C 18,0 C 18,0 C 55 % 81 % 82 % 1016,9 hPa 0,0 l/m 3,7 km/h (1 Bft) W 270 14,9 C 18,2 C 9,9 km/h (2 Bft)
24.07.2021 22:02 25,5 C 18,2 C 17,9 C 18,1 C 55 % 81 % 82 % 1016,9 hPa 0,7 l/m 4,0 km/h (1 Bft) S-SO 157 14,9 C 18,2 C 2,4 km/h (1 Bft)
24.07.2021 22:00 25,5 C 18,3 C 17,9 C 18,1 C 55 % 81 % 81 % 1016,9 hPa 0,0 l/m 4,3 km/h (1 Bft) SO 135 15,0 C 18,3 C 6,3 km/h (2 Bft)
24.07.2021 21:58 25,5 C 18,3 C 17,8 C 18,1 C 55 % 81 % 81 % 1017,2 hPa 0,0 l/m 5,3 km/h (1 Bft) S 180 15,0 C 18,3 C 9,9 km/h (2 Bft)
24.07.2021 21:56 25,5 C 18,2 C 17,7 C 18,2 C 55 % 81 % 81 % 1017,2 hPa 0,0 l/m 5,3 km/h (1 Bft) S-SO 157 14,9 C 18,2 C 9,9 km/h (2 Bft)
24.07.2021 21:54 25,5 C 18,3 C 17,6 C 18,2 C 55 % 80 % 81 % 1017,2 hPa 0,0 l/m 5,1 km/h (1 Bft) N 360 14,8 C 18,3 C 7,2 km/h (2 Bft)
24.07.2021 21:52 25,5 C 18,4 C 17,5 C 18,3 C 55 % 80 % 81 % 1017,2 hPa 0,7 l/m 5,1 km/h (1 Bft) S-SW 202 14,9 C 18,4 C 7,0 km/h (2 Bft)
24.07.2021 21:50 25,5 C 18,4 C 17,5 C 18,4 C 55 % 79 % 81 % 1017,2 hPa 0,0 l/m 5,6 km/h (1 Bft) S-SO 157 14,7 C 18,4 C 13,8 km/h (3 Bft)
24.07.2021 21:48 25,5 C 18,5 C 17,5 C 18,4 C 55 % 79 % 80 % 1017,2 hPa 1,4 l/m 5,5 km/h (1 Bft) S-SO 157 14,8 C 18,5 C 13,8 km/h (3 Bft)
24.07.2021 21:46 25,5 C 18,6 C 17,5 C 18,5 C 55 % 79 % 79 % 1017,2 hPa 1,4 l/m 4,2 km/h (1 Bft) S-SW 202 14,9 C 18,6 C 18,6 km/h (3 Bft)
24.07.2021 21:44 25,5 C 18,8 C 17,5 C 18,8 C 55 % 79 % 79 % 1017,2 hPa 0,0 l/m 4,3 km/h (1 Bft) SW 225 15,1 C 18,8 C 18,6 km/h (3 Bft)
24.07.2021 21:42 25,5 C 19,0 C 17,7 C 19,0 C 55 % 78 % 78 % 1017,2 hPa 1,4 l/m 5,0 km/h (1 Bft) S-SW 202 15,1 C 19,0 C 10,1 km/h (2 Bft)
24.07.2021 21:40 25,5 C 19,5 C 17,8 C 19,2 C 55 % 77 % 77 % 1017,2 hPa 2,7 l/m 6,6 km/h (2 Bft) S-SO 157 15,4 C 19,4 C 10,1 km/h (2 Bft)
24.07.2021 21:38 25,5 C 19,5 C 17,9 C 19,3 C 55 % 77 % 77 % 1017,1 hPa 0,0 l/m 7,9 km/h (2 Bft) S-SO 157 15,4 C 18,9 C 6,8 km/h (2 Bft)
24.07.2021 21:36 25,5 C 19,8 C 18,1 C 19,5 C 55 % 77 % 76 % 1017,1 hPa 2,1 l/m 10,5 km/h (2 Bft) SO 135 15,6 C 18,3 C 43,7 km/h (6 Bft)
24.07.2021 21:34 25,5 C 20,0 C 18,2 C 19,8 C 55 % 77 % 76 % 1017,1 hPa 1,4 l/m 13,4 km/h (3 Bft) W 270 15,8 C 17,6 C 18,1 km/h (3 Bft)
24.07.2021 21:32 25,4 C 20,5 C 18,2 C 20,2 C 55 % 76 % 75 % 1017,1 hPa 0,0 l/m 14,5 km/h (3 Bft) W-SW 247 16,1 C 18,0 C 22,4 km/h (4 Bft)
24.07.2021 21:30 25,5 C 20,8 C 18,4 C 20,5 C 55 % 75 % 74 % 1017,1 hPa 0,7 l/m 15,3 km/h (3 Bft) NW 315 16,2 C 18,2 C 23,7 km/h (4 Bft)
24.07.2021 21:28 25,5 C 21,2 C 18,5 C 21,0 C 55 % 74 % 73 % 1017,1 hPa 0,7 l/m 12,7 km/h (3 Bft) N 360 16,4 C 19,2 C 30,4 km/h (5 Bft)
24.07.2021 21:26 25,5 C 21,7 C 18,6 C 21,5 C 55 % 73 % 72 % 1017,1 hPa 0,0 l/m 10,6 km/h (2 Bft) W 270 16,6 C 20,4 C 30,4 km/h (5 Bft)
24.07.2021 21:24 25,5 C 22,2 C 18,9 C 21,9 C 55 % 71 % 71 % 1017,1 hPa 0,0 l/m 7,1 km/h (2 Bft) W-NW 292 16,7 C 22,0 C 27,5 km/h (4 Bft)
24.07.2021 21:22 25,5 C 22,5 C 20,5 C 22,0 C 55 % 70 % 70 % 1017,1 hPa 0,0 l/m 4,2 km/h (1 Bft) N-NW 337 16,7 C 22,5 C 33,1 km/h (5 Bft)
24.07.2021 21:20 25,5 C 22,7 C 20,9 C 21,9 C 55 % 69 % 70 % 1017,1 hPa 0,0 l/m 2,3 km/h (1 Bft) NO 45 16,7 C 22,7 C 33,1 km/h (5 Bft)
24.07.2021 21:18 25,5 C 22,8 C 21,0 C 21,9 C 55 % 69 % 70 % 1016,0 hPa 0,0 l/m 0,0 km/h (0 Bft) NO 45 16,8 C 22,8 C 0,0 km/h (0 Bft)
24.07.2021 21:16 25,5 C 22,9 C 21,0 C 22,1 C 54 % 67 % 69 % 1016,0 hPa 0,0 l/m 0,0 km/h (0 Bft) N 360 16,4 C 22,9 C 0,0 km/h (0 Bft)
24.07.2021 21:14 25,4 C 22,9 C 21,0 C 22,1 C 54 % 67 % 69 % 1016,0 hPa 0,0 l/m 0,0 km/h (0 Bft) N-NW 337 16,4 C 22,9 C 0,0 km/h (0 Bft)
24.07.2021 21:12 25,5 C 22,9 C 21,2 C 22,2 C 54 % 67 % 69 % 1016,0 hPa 0,0 l/m 0,0 km/h (0 Bft) N-NO 22 16,4 C 22,9 C 0,0 km/h (0 Bft)
24.07.2021 21:10 25,5 C 22,9 C 21,3 C 22,3 C 54 % 67 % 69 % 1016,0 hPa 0,0 l/m 0,0 km/h (0 Bft) N 360 16,4 C 22,9 C 0,0 km/h (0 Bft)
24.07.2021 21:08 25,4 C 23,0 C 21,3 C 22,3 C 54 % 67 % 69 % 1016,0 hPa 0,0 l/m 0,0 km/h (0 Bft) N-NO 22 16,5 C 23,0 C 0,0 km/h (0 Bft)
24.07.2021 21:06 25,4 C 23,0 C 21,1 C 22,4 C 54 % 67 % 69 % 1016,0 hPa 0,0 l/m 0,0 km/h (0 Bft) N 360 16,5 C 23,0 C 0,0 km/h (0 Bft)
24.07.2021 21:04 25,4 C 22,9 C 20,9 C 22,4 C 54 % 67 % 69 % 1016,0 hPa 0,0 l/m 0,0 km/h (0 Bft) O-NO 67 16,4 C 22,9 C 0,0 km/h (0 Bft)
24.07.2021 21:02 25,4 C 22,9 C 21,0 C 22,4 C 54 % 67 % 68 % 1016,0 hPa 0,0 l/m 0,0 km/h (0 Bft) NO 45 16,4 C 22,9 C 0,0 km/h (0 Bft)
24.07.2021 21:00 25,4 C 22,9 C 20,9 C 22,4 C 54 % 67 % 69 % 1016,0 hPa 0,0 l/m 0,0 km/h (0 Bft) NW 315 16,4 C 22,9 C 0,0 km/h (0 Bft)
24.07.2021 20:58 25,4 C 22,9 C 20,8 C 22,3 C 53 % 67 % 69 % 1015,7 hPa 0,0 l/m 0,0 km/h (0 Bft) N-NO 22 16,4 C 22,9 C 0,0 km/h (0 Bft)
24.07.2021 20:56 25,4 C 22,9 C 20,6 C 22,3 C 53 % 67 % 69 % 1015,7 hPa 0,0 l/m 0,0 km/h (0 Bft) NO 45 16,4 C 22,9 C 0,0 km/h (0 Bft)
24.07.2021 20:54 25,4 C 22,9 C 20,7 C 22,3 C 53 % 67 % 69 % 1015,7 hPa 0,0 l/m 0,0 km/h (0 Bft) S-SO 157 16,4 C 22,9 C 0,0 km/h (0 Bft)
24.07.2021 20:52 25,4 C 22,9 C 21,3 C 22,4 C 53 % 67 % 69 % 1015,7 hPa 0,0 l/m 0,0 km/h (0 Bft) O 90 16,4 C 22,9 C 0,0 km/h (0 Bft)
24.07.2021 20:50 25,4 C 22,9 C 21,3 C 22,4 C 53 % 67 % 69 % 1015,7 hPa 0,0 l/m 0,0 km/h (0 Bft) NO 45 16,4 C 22,9 C 0,0 km/h (0 Bft)
24.07.2021 20:48 25,4 C 22,9 C 21,5 C 22,4 C 53 % 68 % 69 % 1015,7 hPa 0,0 l/m 0,0 km/h (0 Bft) N-NO 22 16,7 C 22,9 C 0,0 km/h (0 Bft)
24.07.2021 20:46 25,4 C 22,9 C 21,0 C 22,4 C 53 % 68 % 69 % 1015,7 hPa 0,0 l/m 0,0 km/h (0 Bft) N 360 16,7 C 22,9 C 0,0 km/h (0 Bft)
24.07.2021 20:44 25,4 C 22,8 C 20,8 C 22,4 C 53 % 68 % 69 % 1015,7 hPa 0,0 l/m 0,0 km/h (0 Bft) N 360 16,6 C 22,8 C 0,0 km/h (0 Bft)
24.07.2021 20:42 25,4 C 22,8 C 20,1 C 22,4 C 53 % 67 % 69 % 1015,7 hPa 0,0 l/m 0,0 km/h (0 Bft) N-NW 337 16,3 C 22,8 C 0,0 km/h (0 Bft)
24.07.2021 20:40 25,4 C 22,8 C 20,1 C 22,4 C 53 % 67 % 69 % 1015,7 hPa 0,0 l/m 0,0 km/h (0 Bft) S-SO 157 16,3 C 22,8 C 0,0 km/h (0 Bft)
24.07.2021 20:38 25,4 C 22,8 C 20,2 C 22,4 C 53 % 67 % 69 % 1015,7 hPa 0,0 l/m 0,0 km/h (0 Bft) O 90 16,3 C 22,8 C 0,0 km/h (0 Bft)
24.07.2021 20:36 25,4 C 22,9 C 20,1 C 22,4 C 53 % 67 % 69 % 1015,7 hPa 0,0 l/m 0,0 km/h (0 Bft) O-SO 112 16,4 C 22,9 C 0,0 km/h (0 Bft)
24.07.2021 20:34 25,4 C 22,9 C 20,2 C 22,4 C 53 % 67 % 70 % 1015,7 hPa 0,0 l/m 0,0 km/h (0 Bft) S-SW 202 16,4 C 22,9 C 0,0 km/h (0 Bft)
24.07.2021 20:32 25,4 C 22,9 C 20,2 C 22,4 C 53 % 67 % 70 % 1015,7 hPa 0,0 l/m 0,0 km/h (0 Bft) O 90 16,4 C 22,9 C 0,0 km/h (0 Bft)
24.07.2021 20:30 25,4 C 22,9 C 20,4 C 22,5 C 53 % 67 % 69 % 1015,7 hPa 0,0 l/m 0,0 km/h (0 Bft) S-SO 157 16,4 C 22,9 C 0,0 km/h (0 Bft)
24.07.2021 20:28 25,4 C 22,9 C 20,4 C 22,5 C 53 % 67 % 69 % 1015,7 hPa 0,0 l/m 0,0 km/h (0 Bft) SO 135 16,4 C 22,9 C 0,0 km/h (0 Bft)
24.07.2021 20:26 25,4 C 22,9 C 20,4 C 22,5 C 53 % 67 % 69 % 1015,7 hPa 0,0 l/m 0,0 km/h (0 Bft) O 90 16,4 C 22,9 C 0,0 km/h (0 Bft)
24.07.2021 20:24 25,4 C 22,9 C 20,3 C 22,5 C 53 % 67 % 69 % 1015,7 hPa 0,0 l/m 0,0 km/h (0 Bft) S 180 16,4 C 22,9 C 0,0 km/h (0 Bft)
24.07.2021 20:22 25,4 C 22,9 C 20,3 C 22,4 C 53 % 67 % 70 % 1015,7 hPa 0,0 l/m 0,0 km/h (0 Bft) S-SO 157 16,4 C 22,9 C 0,0 km/h (0 Bft)
24.07.2021 20:20 25,4 C 23,0 C 20,4 C 22,4 C 53 % 67 % 70 % 1015,7 hPa 0,0 l/m 0,0 km/h (0 Bft) O-NO 67 16,5 C 23,0 C 0,0 km/h (0 Bft)
24.07.2021 20:18 25,4 C 23,0 C 20,3 C 22,4 C 53 % 66 % 69 % 1015,7 hPa 0,0 l/m 0,0 km/h (0 Bft) SO 135 16,3 C 23,0 C 0,0 km/h (0 Bft)
24.07.2021 20:16 25,4 C 23,0 C 20,3 C 22,3 C 53 % 66 % 69 % 1015,7 hPa 0,0 l/m 0,0 km/h (0 Bft) S 180 16,3 C 23,0 C 0,0 km/h (0 Bft)
24.07.2021 20:14 25,4 C 23,0 C 20,3 C 22,3 C 53 % 66 % 69 % 1015,7 hPa 0,0 l/m 0,0 km/h (0 Bft) S-SW 202 16,3 C 23,0 C 0,0 km/h (0 Bft)
24.07.2021 20:12 25,4 C 23,0 C 20,3 C 22,3 C 53 % 66 % 69 % 1015,7 hPa 0,0 l/m 0,0 km/h (0 Bft) O-SO 112 16,3 C 23,0 C 0,0 km/h (0 Bft)
24.07.2021 20:10 25,4 C 23,0 C 20,3 C 22,3 C 53 % 66 % 69 % 1015,7 hPa 0,0 l/m 0,0 km/h (0 Bft) O-SO 112 16,3 C 23,0 C 0,0 km/h (0 Bft)
24.07.2021 20:08 25,4 C 23,0 C 20,2 C 22,3 C 53 % 66 % 69 % 1015,7 hPa 0,0 l/m 0,0 km/h (0 Bft) SO 135 16,3 C 23,0 C 0,0 km/h (0 Bft)
24.07.2021 20:06 25,4 C 23,0 C 20,4 C 22,3 C 53 % 66 % 69 % 1015,7 hPa 0,0 l/m 0,0 km/h (0 Bft) SO 135 16,3 C 23,0 C 0,0 km/h (0 Bft)
24.07.2021 20:04 25,4 C 23,1 C 20,4 C 22,3 C 53 % 66 % 69 % 1015,7 hPa 0,0 l/m 0,0 km/h (0 Bft) O 90 16,4 C 23,1 C 0,0 km/h (0 Bft)
24.07.2021 20:02 25,4 C 23,1 C 20,3 C 22,4 C 53 % 66 % 69 % 1015,7 hPa 0,0 l/m 0,0 km/h (0 Bft) O-SO 112 16,4 C 23,1 C 0,0 km/h (0 Bft)
24.07.2021 20:00 25,4 C 23,1 C 20,4 C 22,5 C 53 % 66 % 69 % 1015,7 hPa 0,0 l/m 0,0 km/h (0 Bft) S-SO 157 16,4 C 23,1 C 0,0 km/h (0 Bft)
24.07.2021 19:58 25,4 C 23,1 C 20,5 C 22,5 C 53 % 66 % 69 % 1015,6 hPa 0,0 l/m 0,0 km/h (0 Bft) S-SO 157 16,4 C 23,1 C 0,0 km/h (0 Bft)
24.07.2021 19:56 25,4 C 23,1 C 20,6 C 22,5 C 53 % 66 % 67 % 1015,6 hPa 0,0 l/m 0,0 km/h (0 Bft) S-SO 157 16,4 C 23,1 C 0,0 km/h (0 Bft)
24.07.2021 19:54 25,4 C 23,2 C 20,8 C 22,5 C 53 % 66 % 67 % 1015,6 hPa 0,0 l/m 0,0 km/h (0 Bft) S 180 16,5 C 23,2 C 0,0 km/h (0 Bft)
24.07.2021 19:52 25,4 C 23,2 C 20,8 C 22,5 C 53 % 66 % 67 % 1015,6 hPa 0,0 l/m 0,0 km/h (0 Bft) SO 135 16,5 C 23,2 C 0,0 km/h (0 Bft)
24.07.2021 19:50 25,4 C 23,2 C 20,9 C 22,5 C 53 % 66 % 67 % 1015,6 hPa 0,0 l/m 0,0 km/h (0 Bft) S-SO 157 16,5 C 23,2 C 0,0 km/h (0 Bft)
24.07.2021 19:48 25,4 C 23,2 C 20,8 C 22,5 C 53 % 66 % 68 % 1015,6 hPa 0,0 l/m 0,0 km/h (0 Bft) O-SO 112 16,5 C 23,2 C 0,0 km/h (0 Bft)
24.07.2021 19:46 25,4 C 23,1 C 20,8 C 22,5 C 53 % 66 % 69 % 1015,6 hPa 0,0 l/m 0,0 km/h (0 Bft) O-SO 112 16,4 C 23,1 C 0,0 km/h (0 Bft)
24.07.2021 19:44 25,4 C 23,2 C 20,9 C 22,5 C 53 % 66 % 68 % 1015,6 hPa 0,0 l/m 0,0 km/h (0 Bft) S-SO 157 16,5 C 23,2 C 0,0 km/h (0 Bft)
24.07.2021 19:42 25,4 C 23,2 C 20,9 C 22,5 C 53 % 66 % 69 % 1015,6 hPa 0,0 l/m 0,0 km/h (0 Bft) N-NW 337 16,5 C 23,2 C 0,0 km/h (0 Bft)
24.07.2021 19:40 25,4 C 23,3 C 21,0 C 22,5 C 53 % 65 % 69 % 1015,6 hPa 0,0 l/m 0,0 km/h (0 Bft) SO 135 16,3 C 23,3 C 0,0 km/h (0 Bft)
24.07.2021 19:38 25,4 C 23,4 C 21,0 C 22,5 C 53 % 65 % 69 % 1015,8 hPa 0,0 l/m 0,0 km/h (0 Bft) SO 135 16,4 C 23,4 C 0,0 km/h (0 Bft)
24.07.2021 19:36 25,4 C 23,4 C 21,0 C 22,5 C 53 % 65 % 69 % 1015,8 hPa 0,0 l/m 0,0 km/h (0 Bft) S 180 16,4 C 23,4 C 0,0 km/h (0 Bft)
24.07.2021 19:34 25,4 C 23,5 C 21,1 C 22,6 C 53 % 65 % 69 % 1015,8 hPa 0,0 l/m 0,0 km/h (0 Bft) W 270 16,5 C 23,5 C 0,0 km/h (0 Bft)
24.07.2021 19:32 25,4 C 23,5 C 21,1 C 22,7 C 53 % 65 % 67 % 1015,8 hPa 0,0 l/m 0,0 km/h (0 Bft) S-SO 157 16,5 C 23,5 C 0,0 km/h (0 Bft)
24.07.2021 19:30 25,4 C 23,5 C 21,2 C 22,8 C 53 % 65 % 67 % 1015,8 hPa 0,0 l/m 0,0 km/h (0 Bft) N 360 16,5 C 23,5 C 0,0 km/h (0 Bft)
24.07.2021 19:28 25,4 C 23,4 C 21,1 C 22,9 C 53 % 65 % 67 % 1015,8 hPa 0,0 l/m 0,0 km/h (0 Bft) O-SO 112 16,4 C 23,4 C 0,0 km/h (0 Bft)
24.07.2021 19:26 25,4 C 23,5 C 21,0 C 23,0 C 53 % 65 % 66 % 1015,8 hPa 0,0 l/m 0,0 km/h (0 Bft) NW 315 16,5 C 23,5 C 0,0 km/h (0 Bft)
24.07.2021 19:24 25,4 C 23,5 C 21,0 C 23,1 C 53 % 64 % 66 % 1015,8 hPa 0,0 l/m 0,0 km/h (0 Bft) SW 225 16,3 C 23,5 C 0,0 km/h (0 Bft)
24.07.2021 19:22 25,4 C 23,6 C 21,1 C 23,2 C 53 % 64 % 66 % 1015,8 hPa 0,0 l/m 0,0 km/h (0 Bft) O-NO 67 16,4 C 23,6 C 0,0 km/h (0 Bft)
24.07.2021 19:20 25,4 C 23,7 C 21,1 C 23,3 C 53 % 64 % 66 % 1015,8 hPa 0,0 l/m 0,0 km/h (0 Bft) SW 225 16,5 C 23,7 C 0,0 km/h (0 Bft)
24.07.2021 19:18 25,4 C 23,7 C 21,3 C 23,5 C 53 % 64 % 65 % 1015,8 hPa 0,0 l/m 0,0 km/h (0 Bft) O-SO 112 16,5 C 23,7 C 0,0 km/h (0 Bft)
24.07.2021 19:16 25,4 C 23,9 C 21,5 C 23,5 C 53 % 64 % 65 % 1015,8 hPa 0,0 l/m 0,0 km/h (0 Bft) O-SO 112 16,7 C 23,9 C 0,0 km/h (0 Bft)
24.07.2021 19:14 25,4 C 23,9 C 21,5 C 23,7 C 53 % 63 % 65 % 1015,8 hPa 0,0 l/m 0,0 km/h (0 Bft) SW 225 16,4 C 23,9 C 0,0 km/h (0 Bft)
24.07.2021 19:12 25,2 C 24,0 C 21,7 C 23,9 C 53 % 63 % 65 % 1015,8 hPa 0,0 l/m 0,0 km/h (0 Bft) O-NO 67 16,5 C 24,0 C 0,0 km/h (0 Bft)
24.07.2021 19:10 25,4 C 24,1 C 22,0 C 24,1 C 53 % 63 % 64 % 1015,8 hPa 0,0 l/m 0,0 km/h (0 Bft) NO 45 16,6 C 24,1 C 0,0 km/h (0 Bft)
24.07.2021 19:08 25,4 C 24,1 C 22,1 C 24,1 C 53 % 64 % 64 % 1015,8 hPa 0,0 l/m 0,0 km/h (0 Bft) NO 45 16,9 C 24,1 C 0,0 km/h (0 Bft)
24.07.2021 19:06 25,2 C 24,2 C 22,3 C 24,3 C 53 % 63 % 64 % 1015,8 hPa 0,0 l/m 0,0 km/h (0 Bft) NO 45 16,7 C 24,2 C 0,0 km/h (0 Bft)
24.07.2021 19:04 25,4 C 24,2 C 22,3 C 24,5 C 53 % 63 % 64 % 1015,8 hPa 0,0 l/m 0,0 km/h (0 Bft) W-NW 292 16,7 C 24,2 C 0,0 km/h (0 Bft)
24.07.2021 19:02 25,2 C 24,2 C 22,3 C 24,5 C 53 % 62 % 63 % 1015,8 hPa 0,0 l/m 0,0 km/h (0 Bft) N 360 16,4 C 24,2 C 0,0 km/h (0 Bft)
24.07.2021 19:00 25,2 C 24,2 C 22,5 C 24,6 C 53 % 64 % 63 % 1015,8 hPa 0,0 l/m 0,0 km/h (0 Bft) O-SO 112 16,9 C 24,2 C 0,0 km/h (0 Bft)
24.07.2021 18:58 25,2 C 24,3 C 22,6 C 24,7 C 53 % 63 % 62 % 1016,1 hPa 0,0 l/m 0,0 km/h (0 Bft) N-NW 337 16,8 C 24,3 C 0,0 km/h (0 Bft)
24.07.2021 18:56 25,2 C 24,4 C 22,6 C 24,7 C 53 % 63 % 61 % 1016,1 hPa 0,0 l/m 0,0 km/h (0 Bft) N-NW 337 16,9 C 24,4 C 0,0 km/h (0 Bft)
24.07.2021 18:54 25,2 C 24,5 C 22,6 C 24,7 C 53 % 62 % 61 % 1016,1 hPa 0,0 l/m 0,0 km/h (0 Bft) N-NO 22 16,7 C 24,5 C 0,0 km/h (0 Bft)
24.07.2021 18:52 25,2 C 24,5 C 22,7 C 24,8 C 53 % 60 % 62 % 1016,1 hPa 0,0 l/m 0,0 km/h (0 Bft) N 360 16,2 C 24,5 C 0,0 km/h (0 Bft)
24.07.2021 18:50 25,2 C 24,5 C 22,7 C 24,9 C 53 % 62 % 62 % 1016,1 hPa 0,0 l/m 0,0 km/h (0 Bft) W 270 16,7 C 24,5 C 0,0 km/h (0 Bft)
24.07.2021 18:48 25,2 C 24,5 C 22,6 C 24,9 C 53 % 61 % 61 % 1016,1 hPa 0,0 l/m 0,0 km/h (0 Bft) N-NW 337 16,5 C 24,5 C 0,0 km/h (0 Bft)
24.07.2021 18:46 25,2 C 24,5 C 22,7 C 25,0 C 53 % 61 % 62 % 1016,1 hPa 0,0 l/m 0,0 km/h (0 Bft) O-NO 67 16,5 C 24,5 C 0,0 km/h (0 Bft)
24.07.2021 18:44 25,2 C 24,5 C 22,7 C 25,0 C 53 % 62 % 62 % 1016,1 hPa 0,0 l/m 0,0 km/h (0 Bft) O-NO 67 16,7 C 24,5 C 0,0 km/h (0 Bft)
24.07.2021 18:42 25,2 C 24,6 C 22,9 C 25,0 C 53 % 60 % 61 % 1016,1 hPa 0,0 l/m 0,0 km/h (0 Bft) O 90 16,3 C 24,6 C 0,0 km/h (0 Bft)
24.07.2021 18:40 25,2 C 24,6 C 23,0 C 25,0 C 53 % 60 % 60 % 1016,1 hPa 0,0 l/m 0,0 km/h (0 Bft) N 360 16,3 C 24,6 C 0,0 km/h (0 Bft)
24.07.2021 18:38 25,2 C 24,6 C 23,1 C 25,0 C 53 % 61 % 60 % 1016,0 hPa 0,0 l/m 0,0 km/h (0 Bft) N 360 16,6 C 24,6 C 0,0 km/h (0 Bft)
24.07.2021 18:36 25,2 C 24,6 C 23,1 C 25,1 C 53 % 60 % 61 % 1016,0 hPa 0,0 l/m 0,0 km/h (0 Bft) N-NO 22 16,3 C 24,6 C 0,0 km/h (0 Bft)
24.07.2021 18:34 25,2 C 24,6 C 23,0 C 25,3 C 53 % 61 % 61 % 1016,0 hPa 0,0 l/m 0,0 km/h (0 Bft) N 360 16,6 C 24,6 C 0,0 km/h (0 Bft)
24.07.2021 18:32 25,2 C 24,8 C 23,0 C 25,4 C 53 % 59 % 61 % 1016,0 hPa 0,0 l/m 0,0 km/h (0 Bft) N-NW 337 16,2 C 24,8 C 0,0 km/h (0 Bft)
24.07.2021 18:30 25,2 C 24,8 C 22,9 C 25,5 C 53 % 59 % 61 % 1016,0 hPa 0,0 l/m 0,0 km/h (0 Bft) N-NO 22 16,2 C 24,8 C 0,0 km/h (0 Bft)
24.07.2021 18:28 25,2 C 24,9 C 22,9 C 25,7 C 53 % 59 % 60 % 1016,0 hPa 0,0 l/m 0,0 km/h (0 Bft) W-NW 292 16,3 C 24,9 C 0,0 km/h (0 Bft)
24.07.2021 18:26 25,2 C 24,9 C 22,9 C 25,8 C 53 % 60 % 59 % 1016,0 hPa 0,0 l/m 0,0 km/h (0 Bft) W-SW 247 16,6 C 24,9 C 0,0 km/h (0 Bft)
24.07.2021 18:24 25,2 C 24,9 C 23,0 C 25,9 C 53 % 58 % 59 % 1016,0 hPa 0,0 l/m 0,0 km/h (0 Bft) N 360 16,1 C 24,9 C 0,0 km/h (0 Bft)
24.07.2021 18:22 25,2 C 24,8 C 23,3 C 26,0 C 53 % 58 % 57 % 1016,0 hPa 0,0 l/m 0,0 km/h (0 Bft) S-SW 202 16,0 C 24,8 C 0,0 km/h (0 Bft)
24.07.2021 18:20 25,2 C 24,8 C 23,3 C 26,1 C 53 % 60 % 57 % 1016,0 hPa 0,0 l/m 0,0 km/h (0 Bft) W-NW 292 16,5 C 24,8 C 0,0 km/h (0 Bft)
24.07.2021 18:18 25,2 C 24,8 C 23,3 C 26,2 C 53 % 61 % 57 % 1016,3 hPa 0,0 l/m 0,0 km/h (0 Bft) SW 225 16,8 C 24,8 C 0,0 km/h (0 Bft)
24.07.2021 18:16 25,2 C 24,9 C 23,4 C 26,3 C 53 % 60 % 56 % 1016,3 hPa 0,0 l/m 0,0 km/h (0 Bft) O-SO 112 16,6 C 24,9 C 0,0 km/h (0 Bft)
24.07.2021 18:14 25,2 C 25,1 C 23,4 C 26,4 C 53 % 57 % 54 % 1016,3 hPa 0,0 l/m 0,0 km/h (0 Bft) W-NW 292 16,0 C 25,1 C 0,0 km/h (0 Bft)
24.07.2021 18:12 25,2 C 25,2 C 23,4 C 26,6 C 53 % 57 % 55 % 1016,3 hPa 0,0 l/m 0,0 km/h (0 Bft) W-SW 247 16,1 C 25,2 C 0,0 km/h (0 Bft)
24.07.2021 18:10 25,2 C 25,2 C 23,6 C 26,6 C 53 % 57 % 55 % 1016,3 hPa 0,0 l/m 0,0 km/h (0 Bft) N-NW 337 16,1 C 25,2 C 0,0 km/h (0 Bft)
24.07.2021 18:08 25,2 C 25,2 C 23,6 C 26,6 C 53 % 57 % 53 % 1016,3 hPa 0,0 l/m 0,0 km/h (0 Bft) W-SW 247 16,1 C 25,2 C 0,0 km/h (0 Bft)
24.07.2021 18:06 25,2 C 25,3 C 23,6 C 26,8 C 53 % 57 % 53 % 1016,3 hPa 0,0 l/m 0,0 km/h (0 Bft) W 270 16,2 C 25,3 C 0,0 km/h (0 Bft)
24.07.2021 18:04 25,2 C 25,4 C 23,9 C 26,9 C 53 % 57 % 53 % 1016,3 hPa 0,0 l/m 0,0 km/h (0 Bft) N-NW 337 16,2 C 25,4 C 0,0 km/h (0 Bft)
24.07.2021 18:02 25,2 C 25,6 C 24,0 C 27,1 C 53 % 57 % 52 % 1016,3 hPa 0,0 l/m 0,0 km/h (0 Bft) SW 225 16,4 C 25,6 C 0,0 km/h (0 Bft)
24.07.2021 18:00 25,2 C 25,7 C 24,2 C 27,2 C 53 % 56 % 53 % 1016,3 hPa 0,0 l/m 0,0 km/h (0 Bft) S-SW 202 16,2 C 25,7 C 0,0 km/h (0 Bft)
24.07.2021 17:58 25,2 C 25,8 C 24,5 C 27,5 C 53 % 56 % 53 % 1016,4 hPa 0,0 l/m 0,0 km/h (0 Bft) S-SW 202 16,3 C 25,8 C 0,0 km/h (0 Bft)
24.07.2021 17:56 25,2 C 26,0 C 24,7 C 27,7 C 53 % 55 % 53 % 1016,4 hPa 0,0 l/m 0,0 km/h (0 Bft) W 270 16,2 C 26,0 C 0,0 km/h (0 Bft)
24.07.2021 17:54 25,2 C 26,2 C 25,2 C 27,9 C 53 % 55 % 55 % 1016,4 hPa 0,0 l/m 0,0 km/h (0 Bft) S-SW 202 16,4 C 26,2 C 0,0 km/h (0 Bft)
24.07.2021 17:52 25,2 C 26,4 C 25,3 C 27,9 C 53 % 57 % 54 % 1016,4 hPa 0,0 l/m 0,0 km/h (0 Bft) N-NW 337 17,2 C 26,4 C 0,0 km/h (0 Bft)
24.07.2021 17:50 25,2 C 26,4 C 25,5 C 27,8 C 53 % 56 % 54 % 1016,4 hPa 0,0 l/m 0,0 km/h (0 Bft) NW 315 16,9 C 26,4 C 0,0 km/h (0 Bft)
24.07.2021 17:48 25,3 C 26,4 C 25,2 C 27,7 C 53 % 56 % 54 % 1016,4 hPa 0,0 l/m 0,0 km/h (0 Bft) W 270 16,9 C 26,4 C 0,0 km/h (0 Bft)
24.07.2021 17:46 25,3 C 26,4 C 25,2 C 27,6 C 53 % 56 % 53 % 1016,4 hPa 0,0 l/m 0,0 km/h (0 Bft) N-NW 337 16,9 C 26,4 C 0,0 km/h (0 Bft)
24.07.2021 17:44 25,2 C 26,3 C 25,2 C 27,5 C 53 % 55 % 52 % 1016,4 hPa 0,0 l/m 0,0 km/h (0 Bft) W-SW 247 16,5 C 26,3 C 0,0 km/h (0 Bft)
24.07.2021 17:42 25,3 C 26,3 C 25,3 C 27,6 C 53 % 54 % 52 % 1016,4 hPa 0,0 l/m 0,0 km/h (0 Bft) NW 315 16,2 C 26,3 C 0,0 km/h (0 Bft)
24.07.2021 17:40 25,2 C 26,4 C 25,4 C 27,7 C 53 % 55 % 53 % 1016,4 hPa 0,0 l/m 0,0 km/h (0 Bft) W 270 16,6 C 26,4 C 0,0 km/h (0 Bft)
24.07.2021 17:38 25,2 C 26,5 C 25,5 C 27,6 C 53 % 55 % 53 % 1016,2 hPa 0,0 l/m 0,0 km/h (0 Bft) W 270 16,7 C 26,5 C 0,0 km/h (0 Bft)
24.07.2021 17:36 25,2 C 26,6 C 25,6 C 27,5 C 53 % 55 % 53 % 1016,2 hPa 0,0 l/m 0,0 km/h (0 Bft) SW 225 16,8 C 26,6 C 0,0 km/h (0 Bft)
24.07.2021 17:34 25,3 C 26,7 C 25,6 C 27,4 C 53 % 55 % 53 % 1016,2 hPa 0,0 l/m 0,0 km/h (0 Bft) SW 225 16,9 C 26,7 C 0,0 km/h (0 Bft)
24.07.2021 17:32 25,3 C 26,5 C 25,3 C 27,2 C 53 % 54 % 53 % 1016,2 hPa 0,0 l/m 0,0 km/h (0 Bft) NW 315 16,4 C 26,5 C 0,0 km/h (0 Bft)
24.07.2021 17:30 25,2 C 26,5 C 25,1 C 27,1 C 53 % 56 % 53 % 1016,2 hPa 0,0 l/m 0,0 km/h (0 Bft) W-SW 247 17,0 C 26,5 C 0,0 km/h (0 Bft)
24.07.2021 17:28 25,2 C 26,3 C 25,1 C 27,0 C 53 % 55 % 53 % 1016,2 hPa 0,0 l/m 0,0 km/h (0 Bft) W 270 16,5 C 26,3 C 0,0 km/h (0 Bft)
24.07.2021 17:26 25,3 C 26,2 C 24,9 C 26,9 C 53 % 55 % 54 % 1016,2 hPa 0,0 l/m 0,0 km/h (0 Bft) NW 315 16,4 C 26,2 C 0,0 km/h (0 Bft)
24.07.2021 17:24 25,3 C 26,1 C 24,6 C 26,9 C 53 % 55 % 54 % 1016,2 hPa 0,0 l/m 0,0 km/h (0 Bft) O-SO 112 16,3 C 26,1 C 0,0 km/h (0 Bft)
24.07.2021 17:22 25,3 C 26,1 C 24,7 C 27,0 C 53 % 56 % 54 % 1016,2 hPa 0,0 l/m 0,0 km/h (0 Bft) N-NO 22 16,6 C 26,1 C 0,0 km/h (0 Bft)
24.07.2021 17:20 25,3 C 26,2 C 24,8 C 27,1 C 53 % 58 % 55 % 1016,2 hPa 0,0 l/m 0,0 km/h (0 Bft) NO 45 17,3 C 26,2 C 0,0 km/h (0 Bft)
24.07.2021 17:18 25,3 C 26,2 C 25,0 C 27,3 C 53 % 56 % 55 % 1016,9 hPa 0,0 l/m 0,0 km/h (0 Bft) NW 315 16,7 C 26,2 C 0,0 km/h (0 Bft)
24.07.2021 17:16 25,3 C 26,2 C 24,9 C 27,4 C 53 % 57 % 55 % 1016,9 hPa 0,0 l/m 0,0 km/h (0 Bft) W 270 17,0 C 26,2 C 0,0 km/h (0 Bft)
24.07.2021 17:14 25,2 C 26,1 C 24,9 C 27,3 C 53 % 57 % 55 % 1016,9 hPa 0,0 l/m 0,0 km/h (0 Bft) N-NW 337 16,9 C 26,1 C 0,0 km/h (0 Bft)
24.07.2021 17:12 25,2 C 26,1 C 25,1 C 27,3 C 53 % 57 % 55 % 1016,9 hPa 0,0 l/m 0,0 km/h (0 Bft) W-SW 247 16,9 C 26,1 C 0,0 km/h (0 Bft)
24.07.2021 17:10 25,3 C 26,1 C 25,3 C 27,2 C 53 % 57 % 56 % 1016,9 hPa 0,0 l/m 0,0 km/h (0 Bft) W-SW 247 16,9 C 26,1 C 0,0 km/h (0 Bft)
24.07.2021 17:08 25,2 C 26,1 C 25,3 C 27,2 C 53 % 56 % 56 % 1016,9 hPa 0,0 l/m 0,0 km/h (0 Bft) S-SW 202 16,6 C 26,1 C 0,0 km/h (0 Bft)
24.07.2021 17:06 25,2 C 26,1 C 25,4 C 27,2 C 53 % 57 % 56 % 1016,9 hPa 0,0 l/m 0,0 km/h (0 Bft) W-SW 247 16,9 C 26,1 C 0,0 km/h (0 Bft)
24.07.2021 17:04 25,2 C 26,2 C 25,4 C 27,1 C 53 % 57 % 56 % 1016,9 hPa 0,0 l/m 0,0 km/h (0 Bft) SW 225 17,0 C 26,2 C 0,0 km/h (0 Bft)
24.07.2021 17:02 25,2 C 26,2 C 25,3 C 27,2 C 53 % 57 % 57 % 1016,9 hPa 0,0 l/m 0,0 km/h (0 Bft) O-SO 112 17,0 C 26,2 C 0,0 km/h (0 Bft)
24.07.2021 17:00 25,2 C 26,2 C 25,3 C 27,2 C 53 % 56 % 56 % 1016,9 hPa 0,0 l/m 0,0 km/h (0 Bft) W-SW 247 16,7 C 26,2 C 0,0 km/h (0 Bft)
24.07.2021 16:58 25,2 C 26,3 C 25,3 C 27,3 C 53 % 58 % 57 % 1016,9 hPa 0,0 l/m 0,0 km/h (0 Bft) SW 225 17,4 C 26,3 C 0,0 km/h (0 Bft)
24.07.2021 16:56 25,2 C 26,3 C 25,2 C 27,3 C 53 % 56 % 55 % 1016,9 hPa 0,0 l/m 0,0 km/h (0 Bft) W-NW 292 16,8 C 26,3 C 0,0 km/h (0 Bft)
24.07.2021 16:54 25,2 C 26,3 C 25,2 C 27,4 C 53 % 56 % 54 % 1016,9 hPa 0,0 l/m 0,0 km/h (0 Bft) W 270 16,8 C 26,3 C 0,0 km/h (0 Bft)
24.07.2021 16:52 25,2 C 26,3 C 25,2 C 27,5 C 53 % 55 % 55 % 1016,9 hPa 0,0 l/m 0,0 km/h (0 Bft) NW 315 16,5 C 26,3 C 0,0 km/h (0 Bft)
24.07.2021 16:50 25,2 C 26,4 C 25,2 C 27,5 C 53 % 55 % 55 % 1016,9 hPa 0,0 l/m 0,0 km/h (0 Bft) N-NW 337 16,6 C 26,4 C 0,0 km/h (0 Bft)
24.07.2021 16:48 25,2 C 26,4 C 25,5 C 27,6 C 53 % 56 % 55 % 1016,9 hPa 0,0 l/m 0,0 km/h (0 Bft) S-SW 202 16,9 C 26,4 C 0,0 km/h (0 Bft)
24.07.2021 16:46 25,2 C 26,5 C 25,8 C 27,6 C 53 % 56 % 55 % 1016,9 hPa 0,0 l/m 0,0 km/h (0 Bft) S-SO 157 17,0 C 26,5 C 0,0 km/h (0 Bft)
24.07.2021 16:44 25,2 C 26,5 C 26,0 C 27,6 C 53 % 57 % 55 % 1016,9 hPa 0,0 l/m 0,0 km/h (0 Bft) W 270 17,3 C 26,5 C 0,0 km/h (0 Bft)
24.07.2021 16:42 25,2 C 26,5 C 26,1 C 27,6 C 53 % 58 % 54 % 1016,9 hPa 0,0 l/m 0,0 km/h (0 Bft) SW 225 17,5 C 26,5 C 0,0 km/h (0 Bft)
24.07.2021 16:40 25,2 C 26,5 C 26,0 C 27,5 C 53 % 56 % 54 % 1016,9 hPa 0,0 l/m 0,0 km/h (0 Bft) W 270 17,0 C 26,5 C 0,0 km/h (0 Bft)
24.07.2021 16:38 25,2 C 26,5 C 26,1 C 27,5 C 53 % 56 % 54 % 1016,8 hPa 0,0 l/m 0,0 km/h (0 Bft) W 270 17,0 C 26,5 C 0,0 km/h (0 Bft)
24.07.2021 16:36 25,2 C 26,5 C 26,1 C 27,6 C 53 % 55 % 55 % 1016,8 hPa 0,0 l/m 0,0 km/h (0 Bft) W 270 16,7 C 26,5 C 0,0 km/h (0 Bft)
24.07.2021 16:34 25,2 C 26,6 C 26,1 C 27,6 C 53 % 56 % 55 % 1016,8 hPa 0,0 l/m 0,0 km/h (0 Bft) W 270 17,1 C 26,6 C 0,0 km/h (0 Bft)
24.07.2021 16:32 25,2 C 26,5 C 25,9 C 27,7 C 53 % 57 % 56 % 1016,8 hPa 0,0 l/m 0,0 km/h (0 Bft) W-SW 247 17,3 C 26,5 C 0,0 km/h (0 Bft)
24.07.2021 16:30 25,2 C 26,5 C 25,7 C 27,8 C 53 % 58 % 55 % 1016,8 hPa 0,0 l/m 0,0 km/h (0 Bft) NW 315 17,5 C 26,5 C 0,0 km/h (0 Bft)
24.07.2021 16:28 25,2 C 26,4 C 25,5 C 27,9 C 53 % 58 % 55 % 1016,8 hPa 0,0 l/m 0,0 km/h (0 Bft) W-SW 247 17,5 C 26,4 C 0,0 km/h (0 Bft)
24.07.2021 16:26 25,2 C 26,5 C 25,7 C 28,0 C 53 % 54 % 53 % 1016,8 hPa 0,0 l/m 0,0 km/h (0 Bft) W-SW 247 16,4 C 26,5 C 0,0 km/h (0 Bft)
24.07.2021 16:24 25,2 C 26,6 C 25,9 C 28,1 C 53 % 55 % 53 % 1016,8 hPa 0,0 l/m 0,0 km/h (0 Bft) W-SW 247 16,8 C 26,6 C 0,0 km/h (0 Bft)
24.07.2021 16:22 25,2 C 26,7 C 26,1 C 28,3 C 53 % 55 % 53 % 1016,8 hPa 0,0 l/m 0,0 km/h (0 Bft) NW 315 16,9 C 26,7 C 0,0 km/h (0 Bft)
24.07.2021 16:20 25,2 C 26,9 C 26,2 C 28,5 C 53 % 53 % 52 % 1016,8 hPa 0,0 l/m 0,0 km/h (0 Bft) W 270 16,5 C 26,9 C 0,0 km/h (0 Bft)
24.07.2021 16:18 25,2 C 27,0 C 26,5 C 28,6 C 53 % 54 % 53 % 1016,9 hPa 0,0 l/m 0,0 km/h (0 Bft) N-NO 22 16,9 C 27,0 C 0,0 km/h (0 Bft)
24.07.2021 16:16 25,2 C 27,2 C 27,1 C 28,6 C 53 % 53 % 53 % 1016,9 hPa 0,0 l/m 0,0 km/h (0 Bft) NW 315 16,8 C 27,2 C 0,0 km/h (0 Bft)
24.07.2021 16:14 25,2 C 27,2 C 27,4 C 28,6 C 53 % 54 % 53 % 1016,9 hPa 0,0 l/m 0,0 km/h (0 Bft) W-SW 247 17,1 C 27,2 C 0,0 km/h (0 Bft)
24.07.2021 16:12 25,2 C 27,1 C 27,0 C 28,6 C 53 % 56 % 53 % 1016,9 hPa 0,0 l/m 0,0 km/h (0 Bft) N 360 17,5 C 27,1 C 0,0 km/h (0 Bft)
24.07.2021 16:10 25,2 C 27,0 C 26,8 C 28,7 C 53 % 53 % 52 % 1016,9 hPa 0,0 l/m 0,0 km/h (0 Bft) W-NW 292 16,6 C 27,0 C 0,0 km/h (0 Bft)
24.07.2021 16:08 25,2 C 27,2 C 27,1 C 28,8 C 53 % 54 % 51 % 1016,9 hPa 0,0 l/m 0,0 km/h (0 Bft) N-NW 337 17,1 C 27,2 C 0,0 km/h (0 Bft)
24.07.2021 16:06 25,2 C 27,3 C 27,6 C 28,8 C 53 % 53 % 51 % 1016,9 hPa 0,0 l/m 0,0 km/h (0 Bft) W-SW 247 16,9 C 27,3 C 0,0 km/h (0 Bft)
24.07.2021 16:04 25,2 C 27,3 C 27,8 C 28,7 C 53 % 52 % 52 % 1016,9 hPa 0,0 l/m 0,0 km/h (0 Bft) W 270 16,6 C 27,3 C 0,0 km/h (0 Bft)
24.07.2021 16:02 25,2 C 27,5 C 28,3 C 28,5 C 53 % 51 % 52 % 1016,9 hPa 0,0 l/m 0,0 km/h (0 Bft) N 360 16,4 C 27,5 C 0,0 km/h (0 Bft)
24.07.2021 16:00 25,2 C 27,4 C 28,3 C 28,3 C 53 % 55 % 53 % 1016,9 hPa 0,0 l/m 0,0 km/h (0 Bft) NW 315 17,5 C 27,4 C 0,0 km/h (0 Bft)
24.07.2021 15:58 25,2 C 27,2 C 27,8 C 28,2 C 53 % 52 % 51 % 1016,6 hPa 0,0 l/m 0,0 km/h (0 Bft) NW 315 16,5 C 27,2 C 0,0 km/h (0 Bft)
24.07.2021 15:56 25,2 C 27,1 C 27,5 C 28,2 C 53 % 52 % 50 % 1016,6 hPa 0,0 l/m 0,0 km/h (0 Bft) W 270 16,4 C 27,1 C 0,0 km/h (0 Bft)
24.07.2021 15:54 25,2 C 27,2 C 27,4 C 28,3 C 53 % 52 % 51 % 1016,6 hPa 0,0 l/m 0,0 km/h (0 Bft) N-NW 337 16,5 C 27,2 C 0,0 km/h (0 Bft)
24.07.2021 15:52 25,2 C 27,3 C 27,6 C 28,3 C 53 % 51 % 51 % 1016,6 hPa 0,0 l/m 0,0 km/h (0 Bft) SW 225 16,3 C 27,3 C 0,0 km/h (0 Bft)
24.07.2021 15:50 25,2 C 27,5 C 28,0 C 28,3 C 53 % 52 % 50 % 1016,6 hPa 0,0 l/m 0,0 km/h (0 Bft) W-SW 247 16,7 C 27,5 C 0,0 km/h (0 Bft)
24.07.2021 15:48 25,2 C 27,6 C 28,4 C 28,2 C 53 % 54 % 50 % 1016,6 hPa 0,0 l/m 0,0 km/h (0 Bft) W 270 17,4 C 27,6 C 0,0 km/h (0 Bft)
24.07.2021 15:46 25,2 C 27,6 C 28,7 C 28,3 C 53 % 50 % 49 % 1016,6 hPa 0,0 l/m 0,0 km/h (0 Bft) O-SO 112 16,2 C 27,6 C 0,0 km/h (0 Bft)
24.07.2021 15:44 25,2 C 27,5 C 28,2 C 28,6 C 53 % 51 % 49 % 1016,6 hPa 0,0 l/m 0,0 km/h (0 Bft) NW 315 16,4 C 27,5 C 0,0 km/h (0 Bft)
24.07.2021 15:42 25,2 C 27,3 C 27,9 C 29,0 C 53 % 48 % 48 % 1016,6 hPa 0,0 l/m 0,0 km/h (0 Bft) NW 315 15,3 C 27,3 C 0,0 km/h (0 Bft)
24.07.2021 15:40 25,2 C 27,5 C 28,2 C 29,3 C 53 % 51 % 48 % 1016,6 hPa 0,0 l/m 0,0 km/h (0 Bft) O-SO 112 16,4 C 27,5 C 0,0 km/h (0 Bft)
24.07.2021 15:38 25,2 C 27,8 C 28,8 C 29,6 C 53 % 48 % 47 % 1016,8 hPa 0,0 l/m 0,0 km/h (0 Bft) N-NW 337 15,8 C 27,8 C 0,0 km/h (0 Bft)
24.07.2021 15:36 25,2 C 28,4 C 30,8 C 29,8 C 53 % 50 % 47 % 1016,8 hPa 0,0 l/m 0,0 km/h (0 Bft) NO 45 17,0 C 28,4 C 0,0 km/h (0 Bft)
24.07.2021 15:34 25,2 C 28,8 C 33,4 C 30,2 C 53 % 51 % 47 % 1016,8 hPa 0,0 l/m 0,0 km/h (0 Bft) SO 135 17,6 C 28,8 C 0,0 km/h (0 Bft)
24.07.2021 15:32 25,2 C 28,6 C 33,8 C 30,1 C 53 % 48 % 47 % 1016,8 hPa 0,0 l/m 0,0 km/h (0 Bft) SO 135 16,5 C 28,6 C 0,0 km/h (0 Bft)
24.07.2021 15:30 25,2 C 28,5 C 33,9 C 30,1 C 53 % 47 % 47 % 1016,8 hPa 0,0 l/m 0,0 km/h (0 Bft) O 90 16,1 C 28,5 C 0,0 km/h (0 Bft)
24.07.2021 15:28 25,2 C 28,4 C 34,3 C 30,0 C 53 % 49 % 48 % 1016,8 hPa 0,0 l/m 0,0 km/h (0 Bft) N 360 16,6 C 28,4 C 0,0 km/h (0 Bft)
24.07.2021 15:26 25,2 C 28,3 C 34,1 C 29,7 C 53 % 47 % 48 % 1016,8 hPa 0,0 l/m 0,0 km/h (0 Bft) N-NO 22 15,9 C 28,3 C 0,0 km/h (0 Bft)
24.07.2021 15:24 25,2 C 28,1 C 31,7 C 29,7 C 53 % 49 % 48 % 1016,8 hPa 0,0 l/m 0,0 km/h (0 Bft) O-NO 67 16,4 C 28,1 C 0,0 km/h (0 Bft)
24.07.2021 15:22 25,2 C 28,1 C 29,6 C 29,6 C 53 % 47 % 47 % 1016,8 hPa 0,0 l/m 0,0 km/h (0 Bft) O-NO 67 15,7 C 28,1 C 0,0 km/h (0 Bft)
24.07.2021 15:20 25,1 C 27,9 C 28,8 C 29,5 C 53 % 49 % 48 % 1016,8 hPa 0,0 l/m 0,0 km/h (0 Bft) NW 315 16,2 C 27,9 C 0,0 km/h (0 Bft)
24.07.2021 15:18 25,2 C 28,0 C 28,9 C 29,5 C 53 % 48 % 47 % 1017,1 hPa 0,0 l/m 0,0 km/h (0 Bft) NW 315 15,9 C 28,0 C 0,0 km/h (0 Bft)
24.07.2021 15:16 25,2 C 28,1 C 31,5 C 29,6 C 53 % 48 % 48 % 1017,1 hPa 0,0 l/m 0,0 km/h (0 Bft) W-SW 247 16,0 C 28,1 C 0,0 km/h (0 Bft)
24.07.2021 15:14 25,2 C 27,9 C 31,7 C 29,8 C 53 % 48 % 47 % 1017,1 hPa 0,0 l/m 0,0 km/h (0 Bft) W-NW 292 15,9 C 27,9 C 0,0 km/h (0 Bft)
24.07.2021 15:12 25,2 C 28,0 C 32,4 C 29,9 C 53 % 48 % 48 % 1017,1 hPa 0,0 l/m 0,0 km/h (0 Bft) NW 315 15,9 C 28,0 C 0,0 km/h (0 Bft)
24.07.2021 15:10 25,2 C 28,0 C 33,9 C 29,9 C 53 % 47 % 49 % 1017,1 hPa 0,0 l/m 0,0 km/h (0 Bft) NW 315 15,6 C 28,0 C 0,0 km/h (0 Bft)
24.07.2021 15:08 25,2 C 28,0 C 34,5 C 29,9 C 53 % 48 % 48 % 1017,1 hPa 0,0 l/m 0,0 km/h (0 Bft) W 270 15,9 C 28,0 C 0,0 km/h (0 Bft)
24.07.2021 15:06 25,1 C 27,9 C 35,1 C 29,8 C 53 % 47 % 50 % 1017,1 hPa 0,0 l/m 0,0 km/h (0 Bft) N-NW 337 15,5 C 27,9 C 0,0 km/h (0 Bft)
24.07.2021 15:04 25,2 C 27,9 C 35,2 C 29,7 C 53 % 49 % 48 % 1017,1 hPa 0,0 l/m 0,0 km/h (0 Bft) N 360 16,2 C 27,9 C 0,0 km/h (0 Bft)
24.07.2021 15:02 25,1 C 27,8 C 35,2 C 29,7 C 53 % 48 % 48 % 1017,1 hPa 0,0 l/m 0,0 km/h (0 Bft) W-NW 292 15,8 C 27,8 C 0,0 km/h (0 Bft)
24.07.2021 15:00 25,1 C 27,8 C 35,7 C 29,9 C 53 % 47 % 48 % 1017,1 hPa 0,0 l/m 0,0 km/h (0 Bft) N 360 15,4 C 27,8 C 0,0 km/h (0 Bft)
24.07.2021 14:58 25,1 C 27,9 C 36,0 C 29,9 C 53 % 48 % 48 % 1017,0 hPa 0,0 l/m 0,0 km/h (0 Bft) SW 225 15,9 C 27,9 C 0,0 km/h (0 Bft)
24.07.2021 14:56 25,1 C 27,8 C 35,7 C 30,0 C 53 % 48 % 49 % 1017,0 hPa 0,0 l/m 0,0 km/h (0 Bft) S-SW 202 15,8 C 27,8 C 0,0 km/h (0 Bft)
24.07.2021 14:54 25,1 C 28,0 C 35,0 C 29,8 C 53 % 50 % 51 % 1017,0 hPa 0,0 l/m 0,0 km/h (0 Bft) W 270 16,6 C 28,0 C 0,0 km/h (0 Bft)
24.07.2021 14:52 25,1 C 27,8 C 34,8 C 29,6 C 53 % 49 % 50 % 1017,0 hPa 0,0 l/m 0,0 km/h (0 Bft) W-SW 247 16,1 C 27,8 C 0,0 km/h (0 Bft)
24.07.2021 14:50 25,1 C 27,9 C 35,1 C 29,4 C 53 % 48 % 50 % 1017,0 hPa 0,0 l/m 0,0 km/h (0 Bft) W-NW 292 15,9 C 27,9 C 0,0 km/h (0 Bft)
24.07.2021 14:48 25,1 C 28,1 C 36,1 C 29,4 C 53 % 48 % 50 % 1017,0 hPa 0,0 l/m 0,0 km/h (0 Bft) W 270 16,0 C 28,1 C 0,0 km/h (0 Bft)
24.07.2021 14:46 25,1 C 28,1 C 36,6 C 29,3 C 53 % 51 % 50 % 1017,0 hPa 0,0 l/m 0,0 km/h (0 Bft) W-NW 292 17,0 C 28,1 C 0,0 km/h (0 Bft)
24.07.2021 14:44 25,1 C 27,9 C 36,3 C 29,4 C 53 % 48 % 50 % 1017,0 hPa 0,0 l/m 0,0 km/h (0 Bft) NW 315 15,9 C 27,9 C 0,0 km/h (0 Bft)
24.07.2021 14:42 25,1 C 27,8 C 36,1 C 29,5 C 53 % 52 % 48 % 1017,0 hPa 0,0 l/m 0,0 km/h (0 Bft) NW 315 17,0 C 27,8 C 0,0 km/h (0 Bft)
24.07.2021 14:40 25,1 C 27,6 C 36,1 C 29,6 C 53 % 48 % 49 % 1017,0 hPa 0,0 l/m 0,0 km/h (0 Bft) NO 45 15,6 C 27,6 C 0,0 km/h (0 Bft)
24.07.2021 14:38 25,1 C 27,7 C 37,0 C 29,7 C 53 % 48 % 49 % 1017,2 hPa 0,0 l/m 0,0 km/h (0 Bft) N-NW 337 15,7 C 27,7 C 0,0 km/h (0 Bft)
24.07.2021 14:36 25,1 C 27,6 C 37,8 C 29,8 C 53 % 50 % 50 % 1017,2 hPa 0,0 l/m 0,0 km/h (0 Bft) S-SO 157 16,2 C 27,6 C 0,0 km/h (0 Bft)
24.07.2021 14:34 25,1 C 27,7 C 38,5 C 29,8 C 53 % 48 % 50 % 1017,2 hPa 0,0 l/m 0,0 km/h (0 Bft) W-SW 247 15,7 C 27,7 C 0,0 km/h (0 Bft)
24.07.2021 14:32 25,1 C 27,8 C 40,5 C 29,8 C 53 % 48 % 50 % 1017,2 hPa 0,0 l/m 0,0 km/h (0 Bft) SW 225 15,8 C 27,8 C 0,0 km/h (0 Bft)
24.07.2021 14:30 25,1 C 27,9 C 40,5 C 29,7 C 53 % 51 % 51 % 1017,2 hPa 0,0 l/m 0,0 km/h (0 Bft) W 270 16,8 C 27,9 C 0,0 km/h (0 Bft)
24.07.2021 14:28 25,1 C 27,8 C 41,1 C 29,7 C 53 % 52 % 50 % 1017,2 hPa 0,0 l/m 0,0 km/h (0 Bft) S 180 17,0 C 27,8 C 0,0 km/h (0 Bft)
24.07.2021 14:26 25,1 C 27,8 C 41,2 C 29,6 C 53 % 48 % 51 % 1017,2 hPa 0,0 l/m 0,0 km/h (0 Bft) SW 225 15,8 C 27,8 C 0,0 km/h (0 Bft)
24.07.2021 14:24 25,1 C 28,0 C 40,6 C 29,5 C 53 % 49 % 50 % 1017,2 hPa 0,0 l/m 0,0 km/h (0 Bft) SW 225 16,3 C 28,0 C 0,0 km/h (0 Bft)
24.07.2021 14:22 25,1 C 28,0 C 38,2 C 29,3 C 53 % 49 % 50 % 1017,2 hPa 0,0 l/m 0,0 km/h (0 Bft) W 270 16,3 C 28,0 C 0,0 km/h (0 Bft)
24.07.2021 14:20 25,0 C 28,4 C 38,7 C 29,3 C 53 % 48 % 51 % 1017,2 hPa 0,0 l/m 0,0 km/h (0 Bft) N 360 16,3 C 28,4 C 0,0 km/h (0 Bft)
24.07.2021 14:18 25,0 C 28,5 C 40,5 C 29,1 C 53 % 48 % 51 % 1017,1 hPa 0,0 l/m 0,0 km/h (0 Bft) S 180 16,4 C 28,5 C 0,0 km/h (0 Bft)
24.07.2021 14:16 25,0 C 28,4 C 40,4 C 29,1 C 53 % 52 % 51 % 1017,1 hPa 0,0 l/m 0,0 km/h (0 Bft) O-SO 112 17,6 C 28,4 C 0,0 km/h (0 Bft)
24.07.2021 14:14 25,0 C 28,3 C 40,0 C 29,0 C 53 % 50 % 51 % 1017,1 hPa 0,0 l/m 0,0 km/h (0 Bft) O-NO 67 16,9 C 28,3 C 0,0 km/h (0 Bft)
24.07.2021 14:12 25,0 C 28,1 C 40,0 C 29,1 C 53 % 51 % 50 % 1017,1 hPa 0,0 l/m 0,0 km/h (0 Bft) O-SO 112 17,0 C 28,1 C 0,0 km/h (0 Bft)
24.07.2021 14:10 25,0 C 28,0 C 38,8 C 29,3 C 53 % 50 % 51 % 1017,1 hPa 0,0 l/m 0,0 km/h (0 Bft) O 90 16,6 C 28,0 C 0,0 km/h (0 Bft)
24.07.2021 14:08 25,0 C 28,0 C 38,7 C 29,3 C 53 % 51 % 51 % 1017,1 hPa 0,0 l/m 0,0 km/h (0 Bft) W-SW 247 16,9 C 28,0 C 0,0 km/h (0 Bft)
24.07.2021 14:06 25,0 C 28,0 C 38,9 C 29,3 C 53 % 51 % 51 % 1017,1 hPa 0,0 l/m 0,0 km/h (0 Bft) N 360 16,9 C 28,0 C 0,0 km/h (0 Bft)
24.07.2021 14:04 25,0 C 27,6 C 38,5 C 29,1 C 53 % 49 % 52 % 1017,1 hPa 0,0 l/m 0,0 km/h (0 Bft) NW 315 15,9 C 27,6 C 0,0 km/h (0 Bft)
24.07.2021 14:02 25,0 C 27,4 C 38,3 C 29,0 C 53 % 48 % 52 % 1017,1 hPa 0,0 l/m 0,0 km/h (0 Bft) S-SW 202 15,4 C 27,4 C 0,0 km/h (0 Bft)
24.07.2021 14:00 25,0 C 27,5 C 39,8 C 29,0 C 53 % 49 % 52 % 1017,1 hPa 0,0 l/m 0,0 km/h (0 Bft) N 360 15,8 C 27,5 C 0,0 km/h (0 Bft)
24.07.2021 13:58 25,0 C 27,7 C 39,8 C 29,0 C 53 % 49 % 52 % 1017,1 hPa 0,0 l/m 0,0 km/h (0 Bft) W 270 16,0 C 27,7 C 0,0 km/h (0 Bft)
24.07.2021 13:56 25,0 C 27,9 C 40,3 C 29,0 C 53 % 51 % 53 % 1017,1 hPa 0,0 l/m 0,0 km/h (0 Bft) W 270 16,8 C 27,9 C 0,0 km/h (0 Bft)
24.07.2021 13:54 25,0 C 28,0 C 38,6 C 28,8 C 53 % 53 % 53 % 1017,1 hPa 0,0 l/m 0,0 km/h (0 Bft) N-NW 337 17,5 C 28,0 C 0,0 km/h (0 Bft)
24.07.2021 13:52 25,0 C 28,0 C 38,9 C 28,5 C 53 % 51 % 53 % 1017,1 hPa 0,0 l/m 0,0 km/h (0 Bft) O 90 16,9 C 28,0 C 0,0 km/h (0 Bft)
24.07.2021 13:50 25,0 C 27,9 C 39,2 C 28,3 C 53 % 51 % 51 % 1017,1 hPa 0,0 l/m 0,0 km/h (0 Bft) W-SW 247 16,8 C 27,9 C 0,0 km/h (0 Bft)
24.07.2021 13:48 25,0 C 28,2 C 40,4 C 28,3 C 53 % 49 % 50 % 1017,1 hPa 0,0 l/m 0,0 km/h (0 Bft) N-NW 337 16,5 C 28,2 C 0,0 km/h (0 Bft)
24.07.2021 13:46 25,0 C 28,3 C 41,0 C 28,5 C 53 % 50 % 51 % 1017,1 hPa 0,0 l/m 0,0 km/h (0 Bft) O 90 16,9 C 28,3 C 0,0 km/h (0 Bft)
24.07.2021 13:44 25,0 C 28,1 C 40,5 C 28,6 C 53 % 50 % 52 % 1017,1 hPa 0,0 l/m 0,0 km/h (0 Bft) NO 45 16,7 C 28,1 C 0,0 km/h (0 Bft)
24.07.2021 13:42 25,0 C 28,0 C 40,4 C 28,5 C 53 % 52 % 52 % 1017,1 hPa 0,0 l/m 0,0 km/h (0 Bft) S-SO 157 17,2 C 28,0 C 0,0 km/h (0 Bft)
24.07.2021 13:40 25,0 C 27,9 C 40,3 C 28,4 C 53 % 52 % 52 % 1017,1 hPa 0,0 l/m 0,0 km/h (0 Bft) O-SO 112 17,1 C 27,9 C 0,0 km/h (0 Bft)
24.07.2021 13:38 25,0 C 28,1 C 40,2 C 28,3 C 53 % 50 % 52 % 1017,3 hPa 0,0 l/m 0,0 km/h (0 Bft) W-SW 247 16,7 C 28,1 C 0,0 km/h (0 Bft)
24.07.2021 13:36 25,0 C 28,2 C 40,4 C 28,2 C 53 % 50 % 51 % 1017,3 hPa 0,0 l/m 0,0 km/h (0 Bft) N-NW 337 16,8 C 28,2 C 0,0 km/h (0 Bft)
24.07.2021 13:34 25,0 C 28,1 C 40,8 C 28,3 C 53 % 53 % 52 % 1017,3 hPa 0,0 l/m 0,0 km/h (0 Bft) O 90 17,6 C 28,1 C 0,0 km/h (0 Bft)
24.07.2021 13:32 25,0 C 27,5 C 40,3 C 28,3 C 53 % 50 % 52 % 1017,3 hPa 0,0 l/m 0,0 km/h (0 Bft) SO 135 16,1 C 27,5 C 0,0 km/h (0 Bft)
24.07.2021 13:30 25,0 C 27,5 C 40,5 C 28,3 C 53 % 48 % 54 % 1017,3 hPa 0,0 l/m 0,0 km/h (0 Bft) S-SO 157 15,5 C 27,5 C 0,0 km/h (0 Bft)
24.07.2021 13:28 25,0 C 27,5 C 40,0 C 28,2 C 53 % 48 % 53 % 1017,3 hPa 0,0 l/m 0,0 km/h (0 Bft) SW 225 15,5 C 27,5 C 0,0 km/h (0 Bft)
24.07.2021 13:26 25,0 C 27,6 C 40,2 C 28,1 C 53 % 48 % 53 % 1017,3 hPa 0,0 l/m 0,0 km/h (0 Bft) N-NW 337 15,6 C 27,6 C 0,0 km/h (0 Bft)
24.07.2021 13:24 25,0 C 27,9 C 41,1 C 28,1 C 53 % 51 % 52 % 1017,3 hPa 0,0 l/m 0,0 km/h (0 Bft) W-SW 247 16,8 C 27,9 C 0,0 km/h (0 Bft)
24.07.2021 13:22 25,0 C 28,0 C 40,3 C 28,0 C 53 % 51 % 53 % 1017,3 hPa 0,0 l/m 0,0 km/h (0 Bft) S 180 16,9 C 28,0 C 0,0 km/h (0 Bft)
24.07.2021 13:20 25,0 C 27,4 C 39,6 C 27,9 C 53 % 52 % 53 % 1017,3 hPa 0,0 l/m 0,0 km/h (0 Bft) SO 135 16,7 C 27,4 C 0,0 km/h (0 Bft)
24.07.2021 13:18 25,0 C 27,4 C 40,3 C 27,8 C 53 % 50 % 53 % 1017,5 hPa 0,0 l/m 0,0 km/h (0 Bft) SW 225 16,0 C 27,4 C 0,0 km/h (0 Bft)
24.07.2021 13:16 25,0 C 27,5 C 40,8 C 27,3 C 53 % 48 % 53 % 1017,5 hPa 0,0 l/m 0,0 km/h (0 Bft) W-NW 292 15,5 C 27,5 C 0,0 km/h (0 Bft)
24.07.2021 13:14 25,0 C 27,9 C 40,9 C 27,3 C 53 % 48 % 53 % 1017,5 hPa 0,0 l/m 0,0 km/h (0 Bft) N 360 15,9 C 27,9 C 0,0 km/h (0 Bft)
24.07.2021 13:12 24,9 C 28,1 C 43,1 C 27,3 C 53 % 50 % 53 % 1017,5 hPa 0,0 l/m 0,0 km/h (0 Bft) O-SO 112 16,7 C 28,1 C 0,0 km/h (0 Bft)
24.07.2021 13:10 24,9 C 28,1 C 43,0 C 27,5 C 53 % 49 % 52 % 1017,5 hPa 0,0 l/m 0,0 km/h (0 Bft) O-SO 112 16,4 C 28,1 C 0,0 km/h (0 Bft)
24.07.2021 13:08 24,9 C 28,1 C 43,7 C 27,8 C 53 % 51 % 53 % 1017,5 hPa 0,0 l/m 0,0 km/h (0 Bft) O-SO 112 17,0 C 28,1 C 0,0 km/h (0 Bft)
24.07.2021 13:06 24,9 C 27,8 C 43,4 C 27,8 C 53 % 50 % 53 % 1017,5 hPa 0,0 l/m 0,0 km/h (0 Bft) SO 135 16,4 C 27,8 C 0,0 km/h (0 Bft)
24.07.2021 13:04 24,9 C 27,7 C 42,4 C 27,6 C 53 % 49 % 52 % 1017,5 hPa 0,0 l/m 0,0 km/h (0 Bft) O-SO 112 16,0 C 27,7 C 0,0 km/h (0 Bft)
24.07.2021 13:02 24,9 C 27,6 C 41,7 C 27,8 C 53 % 51 % 52 % 1017,5 hPa 0,0 l/m 0,0 km/h (0 Bft) S-SW 202 16,5 C 27,6 C 0,0 km/h (0 Bft)
24.07.2021 13:00 24,9 C 27,4 C 41,9 C 28,1 C 53 % 51 % 52 % 1017,5 hPa 0,0 l/m 0,0 km/h (0 Bft) S-SW 202 16,3 C 27,4 C 0,0 km/h (0 Bft)
24.07.2021 12:58 24,9 C 27,3 C 40,4 C 28,0 C 53 % 53 % 53 % 1017,3 hPa 0,0 l/m 0,0 km/h (0 Bft) SO 135 16,9 C 27,3 C 0,0 km/h (0 Bft)
24.07.2021 12:56 24,9 C 27,1 C 39,5 C 28,1 C 53 % 53 % 52 % 1017,3 hPa 0,0 l/m 0,0 km/h (0 Bft) N 360 16,7 C 27,1 C 0,0 km/h (0 Bft)
24.07.2021 12:54 24,9 C 26,9 C 39,3 C 27,9 C 53 % 53 % 53 % 1017,3 hPa 0,0 l/m 0,0 km/h (0 Bft) N-NW 337 16,5 C 26,9 C 0,0 km/h (0 Bft)
24.07.2021 12:52 24,9 C 27,0 C 41,2 C 27,7 C 53 % 50 % 53 % 1017,3 hPa 0,0 l/m 0,0 km/h (0 Bft) NW 315 15,7 C 27,0 C 0,0 km/h (0 Bft)
24.07.2021 12:50 24,9 C 27,3 C 42,3 C 27,5 C 53 % 51 % 53 % 1017,3 hPa 0,0 l/m 0,0 km/h (0 Bft) W-SW 247 16,3 C 27,3 C 0,0 km/h (0 Bft)
24.07.2021 12:48 24,9 C 27,0 C 41,1 C 27,5 C 53 % 52 % 53 % 1017,3 hPa 0,0 l/m 0,0 km/h (0 Bft) S-SW 202 16,3 C 27,0 C 0,0 km/h (0 Bft)
24.07.2021 12:46 24,9 C 27,0 C 40,8 C 27,5 C 53 % 52 % 53 % 1017,3 hPa 0,0 l/m 0,0 km/h (0 Bft) NW 315 16,3 C 27,0 C 0,0 km/h (0 Bft)
24.07.2021 12:44 24,9 C 27,2 C 40,0 C 27,5 C 53 % 52 % 55 % 1017,3 hPa 0,0 l/m 0,0 km/h (0 Bft) W 270 16,5 C 27,2 C 0,0 km/h (0 Bft)
24.07.2021 12:42 24,9 C 27,2 C 39,8 C 27,4 C 53 % 52 % 54 % 1017,3 hPa 0,0 l/m 0,0 km/h (0 Bft) W-NW 292 16,5 C 27,2 C 0,0 km/h (0 Bft)
24.07.2021 12:40 24,9 C 27,1 C 39,6 C 27,4 C 53 % 55 % 54 % 1017,3 hPa 0,0 l/m 0,0 km/h (0 Bft) N 360 17,3 C 27,1 C 0,0 km/h (0 Bft)
24.07.2021 12:38 24,9 C 26,8 C 37,8 C 27,4 C 53 % 52 % 54 % 1017,4 hPa 0,0 l/m 0,0 km/h (0 Bft) NW 315 16,1 C 26,8 C 0,0 km/h (0 Bft)
24.07.2021 12:36 24,9 C 27,0 C 40,0 C 27,3 C 53 % 51 % 54 % 1017,4 hPa 0,0 l/m 0,0 km/h (0 Bft) NO 45 16,0 C 27,0 C 0,0 km/h (0 Bft)
24.07.2021 12:34 24,9 C 27,2 C 41,8 C 27,2 C 53 % 51 % 55 % 1017,4 hPa 0,0 l/m 0,0 km/h (0 Bft) N 360 16,2 C 27,2 C 0,0 km/h (0 Bft)
24.07.2021 12:32 24,8 C 27,1 C 42,2 C 27,0 C 53 % 52 % 54 % 1017,4 hPa 0,0 l/m 0,0 km/h (0 Bft) W-NW 292 16,4 C 27,1 C 0,0 km/h (0 Bft)
24.07.2021 12:30 24,8 C 27,0 C 41,2 C 26,8 C 53 % 53 % 54 % 1017,4 hPa 0,0 l/m 0,0 km/h (0 Bft) W 270 16,6 C 27,0 C 0,0 km/h (0 Bft)
24.07.2021 12:28 24,8 C 26,8 C 41,9 C 26,8 C 53 % 53 % 54 % 1017,4 hPa 0,0 l/m 0,0 km/h (0 Bft) NO 45 16,4 C 26,8 C 0,0 km/h (0 Bft)
24.07.2021 12:26 24,8 C 26,7 C 40,5 C 26,7 C 53 % 53 % 53 % 1017,4 hPa 0,0 l/m 0,0 km/h (0 Bft) N 360 16,3 C 26,7 C 0,0 km/h (0 Bft)
24.07.2021 12:24 24,8 C 26,5 C 39,8 C 26,7 C 53 % 49 % 53 % 1017,4 hPa 0,0 l/m 0,0 km/h (0 Bft) S-SO 157 14,9 C 26,5 C 0,0 km/h (0 Bft)
24.07.2021 12:22 24,8 C 26,5 C 40,0 C 26,7 C 53 % 51 % 54 % 1017,4 hPa 0,0 l/m 0,0 km/h (0 Bft) W-SW 247 15,5 C 26,5 C 0,0 km/h (0 Bft)
24.07.2021 12:20 24,8 C 26,5 C 39,4 C 26,8 C 53 % 52 % 54 % 1017,4 hPa 0,0 l/m 0,0 km/h (0 Bft) W 270 15,8 C 26,5 C 0,0 km/h (0 Bft)
24.07.2021 12:18 24,8 C 26,6 C 39,2 C 26,9 C 53 % 53 % 53 % 1017,4 hPa 0,0 l/m 0,0 km/h (0 Bft) W-NW 292 16,2 C 26,6 C 0,0 km/h (0 Bft)
24.07.2021 12:16 24,8 C 26,6 C 38,6 C 27,0 C 53 % 51 % 52 % 1017,4 hPa 0,0 l/m 0,0 km/h (0 Bft) W 270 15,6 C 26,6 C 0,0 km/h (0 Bft)
24.07.2021 12:14 24,8 C 26,6 C 38,4 C 27,1 C 53 % 52 % 53 % 1017,4 hPa 0,0 l/m 0,0 km/h (0 Bft) S-SW 202 15,9 C 26,6 C 0,0 km/h (0 Bft)
24.07.2021 12:12 24,8 C 26,7 C 37,9 C 27,2 C 53 % 52 % 54 % 1017,4 hPa 0,0 l/m 0,0 km/h (0 Bft) W-SW 247 16,0 C 26,7 C 0,0 km/h (0 Bft)
24.07.2021 12:10 24,8 C 26,7 C 37,5 C 27,1 C 53 % 51 % 54 % 1017,4 hPa 0,0 l/m 0,0 km/h (0 Bft) S-SW 202 15,7 C 26,7 C 0,0 km/h (0 Bft)
24.07.2021 12:08 24,8 C 26,4 C 37,1 C 26,8 C 53 % 52 % 54 % 1017,4 hPa 0,0 l/m 0,0 km/h (0 Bft) NW 315 15,7 C 26,4 C 0,0 km/h (0 Bft)
24.07.2021 12:06 24,8 C 26,4 C 35,6 C 26,6 C 53 % 51 % 55 % 1017,4 hPa 0,0 l/m 0,0 km/h (0 Bft) S-SW 202 15,4 C 26,4 C 0,0 km/h (0 Bft)
24.07.2021 12:04 24,8 C 26,3 C 34,7 C 26,4 C 53 % 53 % 54 % 1017,4 hPa 0,0 l/m 0,0 km/h (0 Bft) W 270 15,9 C 26,3 C 0,0 km/h (0 Bft)
24.07.2021 12:02 24,8 C 26,3 C 34,7 C 26,2 C 53 % 52 % 54 % 1017,4 hPa 0,0 l/m 0,0 km/h (0 Bft) W-SW 247 15,6 C 26,3 C 0,0 km/h (0 Bft)
24.07.2021 12:00 24,8 C 26,4 C 34,8 C 26,2 C 52 % 51 % 55 % 1017,4 hPa 0,0 l/m 0,0 km/h (0 Bft) W-SW 247 15,4 C 26,4 C 0,0 km/h (0 Bft)
24.07.2021 11:58 24,8 C 26,4 C 35,6 C 26,3 C 52 % 54 % 55 % 1017,1 hPa 0,0 l/m 0,0 km/h (0 Bft) NW 315 16,3 C 26,4 C 0,0 km/h (0 Bft)
24.07.2021 11:56 24,8 C 26,4 C 35,6 C 26,4 C 52 % 53 % 55 % 1017,1 hPa 0,0 l/m 0,0 km/h (0 Bft) S-SO 157 16,0 C 26,4 C 0,0 km/h (0 Bft)
24.07.2021 11:54 24,8 C 26,2 C 34,8 C 26,4 C 52 % 53 % 55 % 1017,1 hPa 0,0 l/m 0,0 km/h (0 Bft) W 270 15,8 C 26,2 C 0,0 km/h (0 Bft)
24.07.2021 11:52 24,8 C 26,3 C 34,5 C 26,6 C 52 % 53 % 56 % 1017,1 hPa 0,0 l/m 0,0 km/h (0 Bft) S 180 15,9 C 26,3 C 0,0 km/h (0 Bft)
24.07.2021 11:50 24,8 C 26,4 C 34,1 C 26,3 C 52 % 53 % 57 % 1017,1 hPa 0,0 l/m 0,0 km/h (0 Bft) W-NW 292 16,0 C 26,4 C 0,0 km/h (0 Bft)
24.07.2021 11:48 24,8 C 26,1 C 33,8 C 26,2 C 52 % 52 % 57 % 1017,1 hPa 0,0 l/m 0,0 km/h (0 Bft) W-SW 247 15,5 C 26,1 C 0,0 km/h (0 Bft)
24.07.2021 11:46 24,8 C 26,1 C 33,2 C 26,1 C 52 % 53 % 56 % 1017,1 hPa 0,0 l/m 0,0 km/h (0 Bft) NW 315 15,8 C 26,1 C 0,0 km/h (0 Bft)
24.07.2021 11:44 24,8 C 26,1 C 33,0 C 26,0 C 52 % 52 % 57 % 1017,1 hPa 0,0 l/m 0,0 km/h (0 Bft) N-NW 337 15,5 C 26,1 C 0,0 km/h (0 Bft)
24.07.2021 11:42 24,8 C 26,2 C 33,6 C 25,9 C 52 % 54 % 57 % 1017,1 hPa 0,0 l/m 0,0 km/h (0 Bft) NW 315 16,1 C 26,2 C 0,0 km/h (0 Bft)
24.07.2021 11:40 24,8 C 26,2 C 33,4 C 25,8 C 52 % 55 % 56 % 1017,1 hPa 0,0 l/m 0,0 km/h (0 Bft) S-SO 157 16,4 C 26,2 C 0,0 km/h (0 Bft)
24.07.2021 11:38 24,8 C 25,9 C 33,3 C 25,8 C 52 % 55 % 56 % 1017,6 hPa 0,0 l/m 0,0 km/h (0 Bft) O-SO 112 16,2 C 25,9 C 0,0 km/h (0 Bft)
24.07.2021 11:36 24,8 C 25,8 C 32,7 C 25,8 C 52 % 55 % 56 % 1017,6 hPa 0,0 l/m 0,0 km/h (0 Bft) W 270 16,1 C 25,8 C 0,0 km/h (0 Bft)
24.07.2021 11:34 24,7 C 25,7 C 31,4 C 25,6 C 52 % 54 % 56 % 1017,6 hPa 0,0 l/m 0,0 km/h (0 Bft) W 270 15,7 C 25,7 C 0,0 km/h (0 Bft)
24.07.2021 11:32 24,7 C 25,7 C 31,0 C 25,7 C 52 % 54 % 56 % 1017,6 hPa 0,0 l/m 0,0 km/h (0 Bft) W 270 15,7 C 25,7 C 0,0 km/h (0 Bft)
24.07.2021 11:30 24,8 C 25,8 C 30,9 C 25,7 C 52 % 55 % 57 % 1017,6 hPa 0,0 l/m 0,0 km/h (0 Bft) W 270 16,1 C 25,8 C 0,0 km/h (0 Bft)
24.07.2021 11:28 24,7 C 25,7 C 30,3 C 25,6 C 52 % 53 % 57 % 1017,6 hPa 0,0 l/m 0,0 km/h (0 Bft) W-SW 247 15,4 C 25,7 C 0,0 km/h (0 Bft)
24.07.2021 11:26 24,7 C 25,8 C 30,3 C 25,6 C 52 % 52 % 57 % 1017,6 hPa 0,0 l/m 0,0 km/h (0 Bft) W-NW 292 15,2 C 25,8 C 0,0 km/h (0 Bft)
24.07.2021 11:24 24,7 C 26,0 C 30,2 C 25,8 C 52 % 53 % 57 % 1017,6 hPa 0,0 l/m 0,0 km/h (0 Bft) S-SW 202 15,7 C 26,0 C 0,0 km/h (0 Bft)
24.07.2021 11:22 24,7 C 26,1 C 30,2 C 25,8 C 52 % 54 % 58 % 1017,6 hPa 0,0 l/m 0,0 km/h (0 Bft) SO 135 16,0 C 26,1 C 0,0 km/h (0 Bft)
24.07.2021 11:20 24,7 C 25,9 C 30,1 C 25,8 C 52 % 54 % 57 % 1017,6 hPa 0,0 l/m 0,0 km/h (0 Bft) N-NO 22 15,9 C 25,9 C 0,0 km/h (0 Bft)
24.07.2021 11:18 24,7 C 25,6 C 29,5 C 25,8 C 52 % 56 % 58 % 1017,6 hPa 0,0 l/m 0,0 km/h (0 Bft) S-SO 157 16,2 C 25,6 C 0,0 km/h (0 Bft)
24.07.2021 11:16 24,7 C 25,5 C 28,7 C 25,7 C 52 % 55 % 59 % 1017,6 hPa 0,0 l/m 0,0 km/h (0 Bft) W-NW 292 15,8 C 25,5 C 0,0 km/h (0 Bft)
24.07.2021 11:14 24,7 C 25,6 C 28,3 C 25,5 C 52 % 55 % 59 % 1017,6 hPa 0,0 l/m 0,0 km/h (0 Bft) O 90 15,9 C 25,6 C 0,0 km/h (0 Bft)
24.07.2021 11:12 24,7 C 25,5 C 28,3 C 25,5 C 52 % 55 % 59 % 1017,6 hPa 0,0 l/m 0,0 km/h (0 Bft) W-NW 292 15,8 C 25,5 C 0,0 km/h (0 Bft)
24.07.2021 11:10 24,7 C 25,3 C 27,7 C 25,2 C 52 % 55 % 59 % 1017,6 hPa 0,0 l/m 0,0 km/h (0 Bft) NW 315 15,6 C 25,3 C 0,0 km/h (0 Bft)
24.07.2021 11:08 24,7 C 25,2 C 27,5 C 25,1 C 52 % 55 % 59 % 1017,6 hPa 0,0 l/m 0,0 km/h (0 Bft) W-SW 247 15,5 C 25,2 C 0,0 km/h (0 Bft)
24.07.2021 11:06 24,7 C 25,1 C 27,6 C 24,8 C 52 % 54 % 59 % 1017,6 hPa 0,0 l/m 0,0 km/h (0 Bft) W-NW 292 15,1 C 25,1 C 0,0 km/h (0 Bft)
24.07.2021 11:04 24,6 C 25,2 C 28,2 C 24,8 C 52 % 54 % 58 % 1017,6 hPa 0,0 l/m 0,0 km/h (0 Bft) W-NW 292 15,2 C 25,2 C 0,0 km/h (0 Bft)
24.07.2021 11:02 24,7 C 25,2 C 28,5 C 24,8 C 52 % 54 % 59 % 1017,6 hPa 0,0 l/m 0,0 km/h (0 Bft) O-SO 112 15,2 C 25,2 C 0,0 km/h (0 Bft)
24.07.2021 11:00 24,7 C 25,2 C 27,7 C 24,7 C 52 % 55 % 60 % 1017,6 hPa 0,0 l/m 0,0 km/h (0 Bft) W 270 15,5 C 25,2 C 0,0 km/h (0 Bft)
24.07.2021 10:58 24,7 C 25,1 C 27,1 C 24,6 C 52 % 57 % 58 % 1017,5 hPa 0,0 l/m 0,0 km/h (0 Bft) N-NO 22 16,0 C 25,1 C 0,0 km/h (0 Bft)
24.07.2021 10:56 24,6 C 24,9 C 26,4 C 24,5 C 52 % 56 % 59 % 1017,5 hPa 0,0 l/m 0,0 km/h (0 Bft) SW 225 15,5 C 24,9 C 0,0 km/h (0 Bft)
24.07.2021 10:54 24,6 C 24,9 C 26,1 C 24,5 C 52 % 55 % 58 % 1017,5 hPa 0,0 l/m 0,0 km/h (0 Bft) N-NW 337 15,2 C 24,9 C 0,0 km/h (0 Bft)
24.07.2021 10:52 24,6 C 24,8 C 25,7 C 24,3 C 52 % 53 % 58 % 1017,5 hPa 0,0 l/m 0,0 km/h (0 Bft) NW 315 14,6 C 24,8 C 0,0 km/h (0 Bft)
24.07.2021 10:50 24,6 C 24,8 C 25,4 C 24,3 C 52 % 55 % 59 % 1017,5 hPa 0,0 l/m 0,0 km/h (0 Bft) W 270 15,1 C 24,8 C 0,0 km/h (0 Bft)
24.07.2021 10:48 24,6 C 24,7 C 25,5 C 24,2 C 52 % 55 % 59 % 1017,5 hPa 0,0 l/m 0,0 km/h (0 Bft) NO 45 15,0 C 24,7 C 0,0 km/h (0 Bft)
24.07.2021 10:46 24,6 C 24,6 C 25,6 C 24,1 C 52 % 56 % 58 % 1017,5 hPa 0,0 l/m 0,0 km/h (0 Bft) NW 315 15,2 C 24,6 C 0,0 km/h (0 Bft)
24.07.2021 10:44 24,6 C 24,5 C 25,4 C 24,1 C 52 % 56 % 58 % 1017,5 hPa 0,0 l/m 0,0 km/h (0 Bft) SW 225 15,1 C 24,5 C 0,0 km/h (0 Bft)
24.07.2021 10:42 24,6 C 24,5 C 25,4 C 24,1 C 52 % 55 % 60 % 1017,5 hPa 0,0 l/m 0,0 km/h (0 Bft) W 270 14,9 C 24,5 C 0,0 km/h (0 Bft)
24.07.2021 10:40 24,6 C 24,5 C 25,0 C 24,1 C 52 % 55 % 59 % 1017,5 hPa 0,0 l/m 0,0 km/h (0 Bft) W-NW 292 14,9 C 24,5 C 0,0 km/h (0 Bft)
24.07.2021 10:38 24,6 C 24,5 C 25,1 C 24,1 C 52 % 55 % 61 % 1017,6 hPa 0,0 l/m 0,0 km/h (0 Bft) S-SW 202 14,9 C 24,5 C 0,0 km/h (0 Bft)
24.07.2021 10:36 24,6 C 24,5 C 24,4 C 24,1 C 52 % 55 % 61 % 1017,6 hPa 0,0 l/m 0,0 km/h (0 Bft) SW 225 14,9 C 24,5 C 0,0 km/h (0 Bft)
24.07.2021 10:34 24,6 C 24,5 C 24,5 C 24,1 C 52 % 56 % 62 % 1017,6 hPa 0,0 l/m 0,0 km/h (0 Bft) SW 225 15,1 C 24,5 C 0,0 km/h (0 Bft)
24.07.2021 10:32 24,6 C 24,4 C 24,4 C 24,0 C 52 % 56 % 63 % 1017,6 hPa 0,0 l/m 0,0 km/h (0 Bft) N-NW 337 15,0 C 24,4 C 0,0 km/h (0 Bft)
24.07.2021 10:30 24,6 C 24,3 C 24,7 C 23,9 C 52 % 55 % 61 % 1017,6 hPa 0,0 l/m 0,0 km/h (0 Bft) W-NW 292 14,7 C 24,3 C 0,0 km/h (0 Bft)
24.07.2021 10:28 24,6 C 24,4 C 24,6 C 23,9 C 52 % 56 % 61 % 1017,6 hPa 0,0 l/m 0,0 km/h (0 Bft) W 270 15,0 C 24,4 C 0,0 km/h (0 Bft)
24.07.2021 10:26 24,6 C 24,3 C 24,4 C 23,8 C 52 % 56 % 63 % 1017,6 hPa 0,0 l/m 0,0 km/h (0 Bft) S-SW 202 14,9 C 24,3 C 0,0 km/h (0 Bft)
24.07.2021 10:24 24,6 C 24,2 C 24,8 C 23,7 C 52 % 56 % 63 % 1017,6 hPa 0,0 l/m 0,0 km/h (0 Bft) SW 225 14,9 C 24,2 C 0,0 km/h (0 Bft)
24.07.2021 10:22 24,6 C 24,2 C 24,6 C 23,5 C 52 % 56 % 63 % 1017,6 hPa 0,0 l/m 0,0 km/h (0 Bft) W 270 14,9 C 24,2 C 0,0 km/h (0 Bft)
24.07.2021 10:20 24,6 C 24,2 C 24,7 C 23,4 C 52 % 55 % 63 % 1017,6 hPa 0,0 l/m 0,0 km/h (0 Bft) N 360 14,6 C 24,2 C 0,0 km/h (0 Bft)
24.07.2021 10:18 24,6 C 24,2 C 24,5 C 23,3 C 52 % 56 % 63 % 1017,6 hPa 0,0 l/m 0,0 km/h (0 Bft) W-SW 247 14,9 C 24,2 C 0,0 km/h (0 Bft)
24.07.2021 10:16 24,6 C 24,2 C 24,6 C 23,2 C 52 % 56 % 67 % 1017,6 hPa 0,0 l/m 0,0 km/h (0 Bft) W-NW 292 14,9 C 24,2 C 0,0 km/h (0 Bft)
24.07.2021 10:14 24,6 C 24,3 C 24,3 C 23,1 C 52 % 56 % 67 % 1017,6 hPa 0,0 l/m 0,0 km/h (0 Bft) W 270 14,9 C 24,3 C 0,0 km/h (0 Bft)
24.07.2021 10:12 24,6 C 24,2 C 23,7 C 23,0 C 52 % 56 % 67 % 1017,6 hPa 0,0 l/m 0,0 km/h (0 Bft) N 360 14,9 C 24,2 C 0,0 km/h (0 Bft)
24.07.2021 10:10 24,6 C 24,2 C 23,6 C 23,0 C 52 % 56 % 67 % 1017,6 hPa 0,0 l/m 0,0 km/h (0 Bft) W-SW 247 14,9 C 24,2 C 0,0 km/h (0 Bft)
24.07.2021 10:08 24,6 C 24,2 C 23,5 C 23,1 C 52 % 58 % 67 % 1017,6 hPa 0,0 l/m 0,0 km/h (0 Bft) W 270 15,4 C 24,2 C 0,0 km/h (0 Bft)
24.07.2021 10:06 24,6 C 23,9 C 23,5 C 23,0 C 52 % 56 % 67 % 1017,6 hPa 0,0 l/m 0,0 km/h (0 Bft) NW 315 14,6 C 23,9 C 0,0 km/h (0 Bft)
24.07.2021 10:04 24,6 C 23,9 C 23,6 C 22,8 C 52 % 56 % 69 % 1017,6 hPa 0,0 l/m 0,0 km/h (0 Bft) SW 225 14,6 C 23,9 C 0,0 km/h (0 Bft)
24.07.2021 10:02 24,6 C 23,8 C 23,6 C 22,6 C 52 % 56 % 70 % 1017,6 hPa 0,0 l/m 0,0 km/h (0 Bft) W 270 14,5 C 23,8 C 0,0 km/h (0 Bft)
24.07.2021 10:00 24,6 C 23,9 C 23,5 C 22,4 C 52 % 56 % 70 % 1017,6 hPa 0,0 l/m 0,0 km/h (0 Bft) W 270 14,6 C 23,9 C 0,0 km/h (0 Bft)
24.07.2021 09:58 24,6 C 23,8 C 23,3 C 22,2 C 52 % 56 % 73 % 1017,4 hPa 0,0 l/m 0,0 km/h (0 Bft) NW 315 14,5 C 23,8 C 0,0 km/h (0 Bft)
24.07.2021 09:56 24,6 C 23,8 C 23,4 C 22,0 C 52 % 57 % 73 % 1017,4 hPa 0,0 l/m 0,0 km/h (0 Bft) N-NW 337 14,8 C 23,8 C 0,0 km/h (0 Bft)
24.07.2021 09:54 24,6 C 23,7 C 23,2 C 21,9 C 52 % 57 % 74 % 1017,4 hPa 0,0 l/m 0,0 km/h (0 Bft) N-NW 337 14,7 C 23,7 C 0,0 km/h (0 Bft)
24.07.2021 09:52 24,6 C 23,7 C 23,0 C 21,9 C 52 % 57 % 75 % 1017,4 hPa 0,0 l/m 0,0 km/h (0 Bft) W-NW 292 14,7 C 23,7 C 0,0 km/h (0 Bft)
24.07.2021 09:50 24,6 C 23,6 C 22,9 C 21,8 C 53 % 57 % 75 % 1017,4 hPa 0,0 l/m 0,0 km/h (0 Bft) N-NW 337 14,6 C 23,6 C 0,0 km/h (0 Bft)
24.07.2021 09:48 24,6 C 23,5 C 22,6 C 21,7 C 53 % 57 % 75 % 1017,4 hPa 0,0 l/m 0,0 km/h (0 Bft) O-SO 112 14,5 C 23,5 C 0,0 km/h (0 Bft)
24.07.2021 09:46 24,6 C 23,5 C 22,8 C 21,6 C 53 % 57 % 76 % 1017,4 hPa 0,0 l/m 0,0 km/h (0 Bft) W 270 14,5 C 23,5 C 0,0 km/h (0 Bft)
24.07.2021 09:44 24,6 C 23,5 C 22,7 C 21,5 C 53 % 57 % 76 % 1017,4 hPa 0,0 l/m 0,0 km/h (0 Bft) W 270 14,5 C 23,5 C 0,0 km/h (0 Bft)
24.07.2021 09:42 24,6 C 23,5 C 22,4 C 21,0 C 53 % 57 % 80 % 1017,4 hPa 0,0 l/m 0,0 km/h (0 Bft) W-NW 292 14,5 C 23,5 C 0,0 km/h (0 Bft)
24.07.2021 09:40 24,6 C 23,5 C 22,5 C 20,7 C 54 % 57 % 81 % 1017,4 hPa 0,0 l/m 0,0 km/h (0 Bft) W 270 14,5 C 23,5 C 0,0 km/h (0 Bft)
24.07.2021 09:38 24,6 C 23,4 C 22,5 C 20,5 C 53 % 59 % 83 % 1017,6 hPa 0,0 l/m 0,0 km/h (0 Bft) O-NO 67 14,9 C 23,4 C 0,0 km/h (0 Bft)
24.07.2021 09:36 24,5 C 23,3 C 22,2 C 20,2 C 53 % 58 % 84 % 1017,6 hPa 0,0 l/m 0,0 km/h (0 Bft) S-SW 202 14,6 C 23,3 C 0,0 km/h (0 Bft)
24.07.2021 09:34 24,5 C 23,3 C 22,0 C 20,0 C 53 % 59 % 85 % 1017,6 hPa 0,0 l/m 0,0 km/h (0 Bft) S-SW 202 14,8 C 23,3 C 0,0 km/h (0 Bft)
24.07.2021 09:32 24,5 C 23,2 C 21,7 C 19,6 C 53 % 59 % 86 % 1017,6 hPa 0,0 l/m 0,0 km/h (0 Bft) W-NW 292 14,7 C 23,2 C 0,0 km/h (0 Bft)
24.07.2021 09:30 24,6 C 23,1 C 21,6 C 19,1 C 54 % 60 % 87 % 1017,6 hPa 0,0 l/m 0,0 km/h (0 Bft) N-NW 337 14,9 C 23,1 C 0,0 km/h (0 Bft)
24.07.2021 09:28 24,5 C 23,1 C 21,6 C 18,7 C 54 % 59 % 88 % 1017,6 hPa 0,0 l/m 0,0 km/h (0 Bft) W-SW 247 14,6 C 23,1 C 0,0 km/h (0 Bft)
24.07.2021 09:26 24,5 C 23,0 C 21,7 C 18,4 C 54 % 59 % 89 % 1017,6 hPa 0,0 l/m 0,0 km/h (0 Bft) N-NW 337 14,5 C 23,0 C 0,0 km/h (0 Bft)
24.07.2021 09:24 24,5 C 22,9 C 21,5 C 18,0 C 53 % 63 % 89 % 1017,6 hPa 0,0 l/m 0,0 km/h (0 Bft) W 270 15,5 C 22,9 C 0,0 km/h (0 Bft)
24.07.2021 09:22 24,5 C 22,9 C 21,1 C 17,6 C 53 % 61 % 90 % 1017,6 hPa 0,0 l/m 0,0 km/h (0 Bft) O-SO 112 15,0 C 22,9 C 0,0 km/h (0 Bft)
24.07.2021 09:20 24,5 C 22,7 C 21,2 C 17,5 C 53 % 62 % 90 % 1017,6 hPa 0,0 l/m 0,0 km/h (0 Bft) NW 315 15,0 C 22,7 C 0,0 km/h (0 Bft)
24.07.2021 09:18 24,5 C 22,7 C 21,0 C 17,3 C 53 % 63 % 90 % 1017,7 hPa 0,0 l/m 0,0 km/h (0 Bft) SW 225 15,3 C 22,7 C 0,0 km/h (0 Bft)
24.07.2021 09:16 24,5 C 22,5 C 20,8 C 17,2 C 53 % 62 % 90 % 1017,7 hPa 0,0 l/m 0,0 km/h (0 Bft) SW 225 14,8 C 22,5 C 0,0 km/h (0 Bft)
24.07.2021 09:14 24,5 C 22,5 C 20,6 C 17,1 C 53 % 62 % 90 % 1017,7 hPa 0,0 l/m 0,0 km/h (0 Bft) N-NW 337 14,8 C 22,5 C 0,0 km/h (0 Bft)
24.07.2021 09:12 24,5 C 22,4 C 20,4 C 17,0 C 54 % 62 % 90 % 1017,7 hPa 0,0 l/m 0,0 km/h (0 Bft) NW 315 14,8 C 22,4 C 0,0 km/h (0 Bft)
24.07.2021 09:10 24,5 C 22,4 C 20,3 C 16,7 C 54 % 63 % 91 % 1017,7 hPa 0,0 l/m 0,0 km/h (0 Bft) W-NW 292 15,0 C 22,4 C 0,0 km/h (0 Bft)
24.07.2021 09:08 24,5 C 22,3 C 20,3 C 16,5 C 54 % 63 % 91 % 1017,7 hPa 0,0 l/m 0,0 km/h (0 Bft) W-NW 292 14,9 C 22,3 C 0,0 km/h (0 Bft)
24.07.2021 09:06 24,5 C 22,3 C 20,2 C 16,2 C 54 % 63 % 91 % 1017,7 hPa 0,0 l/m 0,0 km/h (0 Bft) SW 225 14,9 C 22,3 C 0,0 km/h (0 Bft)
24.07.2021 09:04 24,5 C 22,2 C 20,0 C 15,9 C 54 % 62 % 92 % 1017,7 hPa 0,0 l/m 0,0 km/h (0 Bft) W 270 14,6 C 22,2 C 0,0 km/h (0 Bft)
24.07.2021 09:02 24,5 C 22,1 C 20,0 C 15,8 C 54 % 64 % 92 % 1017,7 hPa 0,0 l/m 0,0 km/h (0 Bft) N-NO 22 15,0 C 22,1 C 0,0 km/h (0 Bft)
24.07.2021 09:00 24,5 C 22,1 C 20,1 C 15,5 C 54 % 64 % 92 % 1017,7 hPa 0,0 l/m 0,0 km/h (0 Bft) NO 45 15,0 C 22,1 C 0,0 km/h (0 Bft)
24.07.2021 08:58 24,5 C 22,0 C 20,0 C 15,3 C 54 % 66 % 92 % 1017,6 hPa 0,0 l/m 0,0 km/h (0 Bft) N-NO 22 15,3 C 22,0 C 0,0 km/h (0 Bft)
24.07.2021 08:56 24,4 C 21,9 C 19,5 C 15,2 C 54 % 65 % 92 % 1017,6 hPa 0,0 l/m 0,0 km/h (0 Bft) S-SW 202 15,0 C 21,9 C 0,0 km/h (0 Bft)
24.07.2021 08:54 24,4 C 21,8 C 19,6 C 15,1 C 54 % 66 % 92 % 1017,6 hPa 0,0 l/m 0,0 km/h (0 Bft) N-NW 337 15,2 C 21,8 C 0,0 km/h (0 Bft)
24.07.2021 08:52 24,4 C 21,7 C 19,2 C 15,2 C 54 % 66 % 92 % 1017,6 hPa 0,0 l/m 0,0 km/h (0 Bft) W-SW 247 15,1 C 21,7 C 0,0 km/h (0 Bft)
24.07.2021 08:50 24,4 C 21,7 C 19,1 C 15,1 C 54 % 67 % 92 % 1017,6 hPa 0,0 l/m 0,0 km/h (0 Bft) W-SW 247 15,3 C 21,7 C 0,0 km/h (0 Bft)
24.07.2021 08:48 24,4 C 21,7 C 18,6 C 15,0 C 53 % 65 % 92 % 1017,6 hPa 0,0 l/m 0,0 km/h (0 Bft) O-NO 67 14,8 C 21,7 C 0,0 km/h (0 Bft)
24.07.2021 08:46 24,4 C 21,6 C 18,4 C 14,9 C 53 % 65 % 92 % 1017,6 hPa 0,0 l/m 0,0 km/h (0 Bft) N 360 14,7 C 21,6 C 0,0 km/h (0 Bft)
24.07.2021 08:44 24,4 C 21,6 C 18,4 C 14,8 C 53 % 64 % 92 % 1017,6 hPa 0,0 l/m 0,0 km/h (0 Bft) N-NO 22 14,5 C 21,6 C 0,0 km/h (0 Bft)
24.07.2021 08:42 24,4 C 21,5 C 18,3 C 14,6 C 54 % 66 % 92 % 1017,6 hPa 0,0 l/m 0,0 km/h (0 Bft) NW 315 14,9 C 21,5 C 0,0 km/h (0 Bft)
24.07.2021 08:40 24,4 C 21,2 C 18,1 C 14,5 C 53 % 68 % 92 % 1017,6 hPa 0,0 l/m 0,0 km/h (0 Bft) O-NO 67 15,1 C 21,2 C 0,0 km/h (0 Bft)
24.07.2021 08:38 24,4 C 21,1 C 17,8 C 14,3 C 53 % 66 % 92 % 1017,5 hPa 0,0 l/m 0,0 km/h (0 Bft) N-NO 22 14,5 C 21,1 C 0,0 km/h (0 Bft)
24.07.2021 08:36 24,5 C 21,0 C 17,3 C 14,2 C 54 % 66 % 92 % 1017,5 hPa 0,0 l/m 0,0 km/h (0 Bft) N-NW 337 14,4 C 21,0 C 0,0 km/h (0 Bft)
24.07.2021 08:34 24,5 C 20,9 C 17,3 C 14,1 C 54 % 66 % 92 % 1017,5 hPa 0,0 l/m 0,0 km/h (0 Bft) N 360 14,3 C 20,9 C 0,0 km/h (0 Bft)
24.07.2021 08:32 24,5 C 20,8 C 17,8 C 13,9 C 54 % 69 % 92 % 1017,5 hPa 0,0 l/m 0,0 km/h (0 Bft) W-SW 247 14,9 C 20,8 C 0,0 km/h (0 Bft)
24.07.2021 08:30 24,5 C 20,7 C 17,8 C 13,7 C 53 % 70 % 92 % 1017,5 hPa 0,0 l/m 0,0 km/h (0 Bft) N 360 15,0 C 20,7 C 0,0 km/h (0 Bft)
24.07.2021 08:28 24,5 C 20,5 C 17,1 C 13,7 C 53 % 70 % 92 % 1017,5 hPa 0,0 l/m 0,0 km/h (0 Bft) S-SO 157 14,8 C 20,5 C 0,0 km/h (0 Bft)
24.07.2021 08:26 24,5 C 20,5 C 17,2 C 13,6 C 53 % 69 % 92 % 1017,5 hPa 0,0 l/m 0,0 km/h (0 Bft) N-NO 22 14,6 C 20,5 C 0,0 km/h (0 Bft)
24.07.2021 08:24 24,5 C 20,4 C 17,4 C 13,5 C 53 % 68 % 92 % 1017,5 hPa 0,0 l/m 0,0 km/h (0 Bft) NO 45 14,3 C 20,4 C 0,0 km/h (0 Bft)
24.07.2021 08:22 24,6 C 20,3 C 16,4 C 13,4 C 53 % 68 % 92 % 1017,5 hPa 0,0 l/m 0,0 km/h (0 Bft) O-SO 112 14,2 C 20,3 C 0,0 km/h (0 Bft)
24.07.2021 08:20 24,6 C 20,1 C 16,2 C 13,3 C 53 % 67 % 92 % 1017,5 hPa 0,0 l/m 0,0 km/h (0 Bft) N-NO 22 13,8 C 20,1 C 0,0 km/h (0 Bft)
24.07.2021 08:18 24,6 C 19,9 C 16,2 C 13,1 C 53 % 70 % 92 % 1017,5 hPa 0,0 l/m 0,0 km/h (0 Bft) NO 45 14,3 C 19,9 C 0,0 km/h (0 Bft)
24.07.2021 08:16 24,6 C 19,8 C 16,4 C 12,9 C 54 % 71 % 92 % 1017,5 hPa 0,0 l/m 0,0 km/h (0 Bft) O-SO 112 14,4 C 19,8 C 0,0 km/h (0 Bft)
24.07.2021 08:14 24,6 C 19,6 C 16,1 C 12,9 C 54 % 69 % 92 % 1017,5 hPa 0,0 l/m 0,0 km/h (0 Bft) NO 45 13,8 C 19,6 C 0,0 km/h (0 Bft)
24.07.2021 08:12 24,6 C 19,6 C 16,3 C 12,8 C 54 % 70 % 92 % 1017,5 hPa 0,0 l/m 0,0 km/h (0 Bft) N 360 14,0 C 19,6 C 0,0 km/h (0 Bft)
24.07.2021 08:10 24,6 C 19,5 C 16,2 C 12,8 C 54 % 72 % 92 % 1017,5 hPa 0,0 l/m 0,0 km/h (0 Bft) NO 45 14,3 C 19,5 C 0,0 km/h (0 Bft)
24.07.2021 08:08 24,6 C 19,4 C 16,0 C 12,7 C 54 % 71 % 92 % 1017,5 hPa 0,0 l/m 0,0 km/h (0 Bft) N-NW 337 14,0 C 19,4 C 0,0 km/h (0 Bft)
24.07.2021 08:06 24,6 C 19,3 C 16,1 C 12,5 C 54 % 72 % 92 % 1017,5 hPa 0,0 l/m 0,0 km/h (0 Bft) N-NW 337 14,1 C 19,3 C 0,0 km/h (0 Bft)
24.07.2021 08:04 24,7 C 19,2 C 16,1 C 12,5 C 54 % 71 % 92 % 1017,5 hPa 0,0 l/m 0,0 km/h (0 Bft) NO 45 13,8 C 19,2 C 0,0 km/h (0 Bft)
24.07.2021 08:02 24,7 C 18,9 C 16,2 C 12,2 C 54 % 72 % 92 % 1017,5 hPa 0,0 l/m 0,0 km/h (0 Bft) NO 45 13,7 C 18,9 C 0,0 km/h (0 Bft)
24.07.2021 08:00 24,7 C 18,6 C 16,6 C 12,1 C 54 % 73 % 92 % 1017,5 hPa 0,0 l/m 0,0 km/h (0 Bft) W 270 13,7 C 18,6 C 0,0 km/h (0 Bft)
24.07.2021 07:58 24,6 C 18,5 C 16,4 C 12,0 C 55 % 75 % 92 % 1017,8 hPa 0,0 l/m 0,0 km/h (0 Bft) W-SW 247 14,0 C 18,5 C 0,0 km/h (0 Bft)
24.07.2021 07:56 24,7 C 18,5 C 16,6 C 11,9 C 54 % 75 % 92 % 1017,8 hPa 0,0 l/m 0,0 km/h (0 Bft) S 180 14,0 C 18,5 C 0,0 km/h (0 Bft)
24.07.2021 07:54 24,7 C 18,6 C 16,6 C 11,7 C 54 % 78 % 92 % 1017,8 hPa 0,0 l/m 0,0 km/h (0 Bft) SO 135 14,7 C 18,6 C 0,0 km/h (0 Bft)
24.07.2021 07:52 24,7 C 18,6 C 16,2 C 11,7 C 54 % 81 % 92 % 1017,8 hPa 0,0 l/m 0,0 km/h (0 Bft) SW 225 15,3 C 18,6 C 0,0 km/h (0 Bft)
24.07.2021 07:50 24,7 C 18,2 C 16,4 C 11,5 C 54 % 81 % 92 % 1017,8 hPa 0,0 l/m 0,0 km/h (0 Bft) S 180 14,9 C 18,2 C 0,0 km/h (0 Bft)
24.07.2021 07:48 24,7 C 17,9 C 16,4 C 11,3 C 54 % 82 % 92 % 1017,8 hPa 0,0 l/m 0,0 km/h (0 Bft) SW 225 14,8 C 17,9 C 0,0 km/h (0 Bft)
24.07.2021 07:46 24,7 C 17,8 C 16,5 C 11,1 C 54 % 82 % 92 % 1017,8 hPa 0,0 l/m 0,0 km/h (0 Bft) S 180 14,7 C 17,8 C 0,0 km/h (0 Bft)
24.07.2021 07:44 24,7 C 17,6 C 16,7 C 10,8 C 55 % 82 % 92 % 1017,8 hPa 0,0 l/m 0,0 km/h (0 Bft) S-SO 157 14,5 C 17,6 C 0,0 km/h (0 Bft)
24.07.2021 07:42 24,7 C 17,3 C 16,8 C 10,7 C 54 % 83 % 92 % 1017,8 hPa 0,0 l/m 0,0 km/h (0 Bft) W 270 14,4 C 17,3 C 0,0 km/h (0 Bft)
24.07.2021 07:40 24,6 C 17,0 C 16,6 C 10,6 C 54 % 83 % 92 % 1017,8 hPa 0,0 l/m 0,0 km/h (0 Bft) S-SW 202 14,1 C 17,0 C 0,0 km/h (0 Bft)
24.07.2021 07:38 24,6 C 16,8 C 16,4 C 10,5 C 54 % 84 % 92 % 1017,9 hPa 0,0 l/m 0,0 km/h (0 Bft) S-SW 202 14,1 C 16,8 C 0,0 km/h (0 Bft)
24.07.2021 07:36 24,7 C 16,6 C 15,9 C 10,3 C 54 % 84 % 92 % 1017,9 hPa 0,0 l/m 0,0 km/h (0 Bft) W 270 13,9 C 16,6 C 0,0 km/h (0 Bft)
24.07.2021 07:34 24,7 C 16,3 C 16,1 C 10,2 C 54 % 84 % 92 % 1017,9 hPa 0,0 l/m 0,0 km/h (0 Bft) N-NW 337 13,6 C 16,3 C 0,0 km/h (0 Bft)
24.07.2021 07:32 24,6 C 16,0 C 15,6 C 10,0 C 54 % 84 % 92 % 1017,9 hPa 0,0 l/m 0,0 km/h (0 Bft) SW 225 13,3 C 16,0 C 0,0 km/h (0 Bft)
24.07.2021 07:30 24,7 C 15,7 C 15,6 C 9,9 C 54 % 85 % 92 % 1017,9 hPa 0,0 l/m 0,0 km/h (0 Bft) W 270 13,2 C 15,7 C 0,0 km/h (0 Bft)
24.07.2021 07:28 24,7 C 15,3 C 15,6 C 9,7 C 54 % 86 % 92 % 1017,9 hPa 0,0 l/m 0,0 km/h (0 Bft) W-NW 292 13,0 C 15,3 C 0,0 km/h (0 Bft)
24.07.2021 07:26 24,7 C 15,2 C 15,3 C 9,6 C 54 % 86 % 92 % 1017,9 hPa 0,0 l/m 0,0 km/h (0 Bft) W 270 12,9 C 15,2 C 0,0 km/h (0 Bft)
24.07.2021 07:24 24,7 C 14,8 C 14,8 C 9,5 C 54 % 86 % 92 % 1017,9 hPa 0,0 l/m 0,0 km/h (0 Bft) W 270 12,5 C 14,8 C 0,0 km/h (0 Bft)
24.07.2021 07:22 24,7 C 14,4 C 14,2 C 9,4 C 54 % 86 % 92 % 1017,9 hPa 0,0 l/m 0,0 km/h (0 Bft) W 270 12,1 C 14,4 C 0,0 km/h (0 Bft)
24.07.2021 07:20 24,7 C 14,1 C 13,9 C 9,3 C 54 % 86 % 92 % 1017,9 hPa 0,0 l/m 0,0 km/h (0 Bft) W 270 11,8 C 14,1 C 0,0 km/h (0 Bft)
24.07.2021 07:18 24,7 C 13,8 C 13,8 C 9,3 C 54 % 86 % 92 % 1018,1 hPa 0,0 l/m 0,0 km/h (0 Bft) W 270 11,5 C 13,8 C 0,0 km/h (0 Bft)
24.07.2021 07:16 24,7 C 13,8 C 13,7 C 9,3 C 54 % 86 % 92 % 1018,1 hPa 0,0 l/m 0,0 km/h (0 Bft) W 270 11,5 C 13,8 C 0,0 km/h (0 Bft)
24.07.2021 07:14 24,7 C 13,7 C 13,7 C 9,2 C 54 % 86 % 92 % 1018,1 hPa 0,0 l/m 0,0 km/h (0 Bft) W-SW 247 11,4 C 13,7 C 0,0 km/h (0 Bft)
24.07.2021 07:12 24,7 C 13,6 C 13,7 C 9,2 C 54 % 87 % 92 % 1018,1 hPa 0,0 l/m 0,0 km/h (0 Bft) W 270 11,5 C 13,6 C 0,0 km/h (0 Bft)
24.07.2021 07:10 24,7 C 13,6 C 13,7 C 9,1 C 54 % 87 % 92 % 1018,1 hPa 0,0 l/m 0,0 km/h (0 Bft) SW 225 11,5 C 13,6 C 0,0 km/h (0 Bft)
24.07.2021 07:08 24,7 C 13,5 C 13,6 C 9,0 C 54 % 87 % 92 % 1018,1 hPa 0,0 l/m 0,0 km/h (0 Bft) W 270 11,4 C 13,5 C 0,0 km/h (0 Bft)
24.07.2021 07:06 24,7 C 13,5 C 13,4 C 8,9 C 54 % 87 % 92 % 1018,1 hPa 0,0 l/m 0,0 km/h (0 Bft) W-SW 247 11,4 C 13,5 C 0,0 km/h (0 Bft)
24.07.2021 07:04 24,7 C 13,4 C 13,4 C 8,9 C 54 % 87 % 92 % 1018,1 hPa 0,0 l/m 0,0 km/h (0 Bft) SW 225 11,3 C 13,4 C 0,0 km/h (0 Bft)
24.07.2021 07:02 24,7 C 13,3 C 13,4 C 8,8 C 54 % 87 % 92 % 1018,1 hPa 0,0 l/m 0,0 km/h (0 Bft) S-SO 157 11,2 C 13,3 C 0,0 km/h (0 Bft)
24.07.2021 07:00 24,7 C 13,2 C 13,4 C 8,8 C 54 % 87 % 92 % 1018,1 hPa 0,0 l/m 0,0 km/h (0 Bft) S-SO 157 11,1 C 13,2 C 0,0 km/h (0 Bft)
24.07.2021 06:58 24,7 C 13,2 C 13,2 C 8,8 C 54 % 87 % 92 % 1018,2 hPa 0,0 l/m 0,0 km/h (0 Bft) S-SO 157 11,1 C 13,2 C 0,0 km/h (0 Bft)
24.07.2021 06:56 24,7 C 13,1 C 13,2 C 8,7 C 54 % 87 % 92 % 1018,2 hPa 0,0 l/m 0,0 km/h (0 Bft) SW 225 11,0 C 13,1 C 0,0 km/h (0 Bft)
24.07.2021 06:54 24,7 C 13,0 C 13,1 C 8,5 C 54 % 87 % 92 % 1018,2 hPa 0,0 l/m 0,0 km/h (0 Bft) W 270 10,9 C 13,0 C 0,0 km/h (0 Bft)
24.07.2021 06:52 24,7 C 12,9 C 13,1 C 8,6 C 54 % 87 % 92 % 1018,2 hPa 0,0 l/m 0,0 km/h (0 Bft) W 270 10,8 C 12,9 C 0,0 km/h (0 Bft)
24.07.2021 06:50 24,7 C 12,8 C 13,1 C 8,5 C 54 % 87 % 92 % 1018,2 hPa 0,0 l/m 0,0 km/h (0 Bft) W-NW 292 10,7 C 12,8 C 0,0 km/h (0 Bft)
24.07.2021 06:48 24,7 C 12,7 C 13,1 C 8,5 C 54 % 87 % 92 % 1018,2 hPa 0,0 l/m 0,0 km/h (0 Bft) W-SW 247 10,6 C 12,7 C 0,0 km/h (0 Bft)
24.07.2021 06:46 24,7 C 12,6 C 12,9 C 8,3 C 54 % 87 % 92 % 1018,2 hPa 0,0 l/m 0,0 km/h (0 Bft) NW 315 10,5 C 12,6 C 0,0 km/h (0 Bft)
24.07.2021 06:44 24,7 C 12,5 C 12,8 C 8,3 C 54 % 87 % 92 % 1018,2 hPa 0,0 l/m 0,0 km/h (0 Bft) SO 135 10,4 C 12,5 C 0,0 km/h (0 Bft)
24.07.2021 06:42 24,7 C 12,5 C 12,9 C 8,3 C 54 % 87 % 92 % 1018,2 hPa 0,0 l/m 0,0 km/h (0 Bft) SO 135 10,4 C 12,5 C 0,0 km/h (0 Bft)
24.07.2021 06:40 24,7 C 12,4 C 12,8 C 8,2 C 54 % 87 % 92 % 1018,2 hPa 0,0 l/m 0,0 km/h (0 Bft) W 270 10,3 C 12,4 C 0,0 km/h (0 Bft)
24.07.2021 06:38 24,7 C 12,3 C 12,8 C 8,2 C 54 % 87 % 92 % 1018,1 hPa 0,0 l/m 0,0 km/h (0 Bft) W 270 10,2 C 12,3 C 0,0 km/h (0 Bft)
24.07.2021 06:36 24,7 C 12,2 C 12,8 C 8,2 C 54 % 87 % 92 % 1018,1 hPa 0,0 l/m 0,0 km/h (0 Bft) W 270 10,1 C 12,2 C 0,0 km/h (0 Bft)
24.07.2021 06:34 24,7 C 12,1 C 12,8 C 8,1 C 54 % 87 % 92 % 1018,1 hPa 0,0 l/m 0,0 km/h (0 Bft) W-SW 247 10,0 C 12,1 C 0,0 km/h (0 Bft)
24.07.2021 06:32 24,7 C 12,2 C 12,7 C 8,1 C 54 % 87 % 92 % 1018,1 hPa 0,0 l/m 0,0 km/h (0 Bft) W 270 10,1 C 12,2 C 0,0 km/h (0 Bft)
24.07.2021 06:30 24,7 C 12,2 C 12,5 C 8,0 C 54 % 87 % 92 % 1018,1 hPa 0,0 l/m 0,0 km/h (0 Bft) W-SW 247 10,1 C 12,2 C 0,0 km/h (0 Bft)
24.07.2021 06:28 24,7 C 12,1 C 12,5 C 8,0 C 54 % 87 % 91 % 1018,1 hPa 0,0 l/m 0,0 km/h (0 Bft) W 270 10,0 C 12,1 C 0,0 km/h (0 Bft)
24.07.2021 06:26 24,7 C 12,0 C 12,4 C 7,9 C 54 % 87 % 92 % 1018,1 hPa 0,0 l/m 0,0 km/h (0 Bft) W-NW 292 9,9 C 12,0 C 0,0 km/h (0 Bft)
24.07.2021 06:24 24,7 C 12,0 C 12,5 C 7,9 C 54 % 87 % 92 % 1018,1 hPa 0,0 l/m 0,0 km/h (0 Bft) S-SW 202 9,9 C 12,0 C 0,0 km/h (0 Bft)
24.07.2021 06:22 24,7 C 11,9 C 12,5 C 7,8 C 54 % 87 % 91 % 1018,1 hPa 0,0 l/m 0,0 km/h (0 Bft) N 360 9,8 C 11,9 C 0,0 km/h (0 Bft)
24.07.2021 06:20 24,7 C 11,9 C 12,4 C 7,8 C 54 % 87 % 91 % 1018,1 hPa 0,0 l/m 0,0 km/h (0 Bft) W-SW 247 9,8 C 11,9 C 0,0 km/h (0 Bft)
24.07.2021 06:18 24,7 C 11,9 C 12,4 C 7,7 C 54 % 87 % 91 % 1018,1 hPa 0,0 l/m 0,0 km/h (0 Bft) SO 135 9,8 C 11,9 C 0,0 km/h (0 Bft)
24.07.2021 06:16 24,7 C 11,8 C 12,3 C 7,7 C 54 % 87 % 91 % 1018,1 hPa 0,0 l/m 0,0 km/h (0 Bft) NO 45 9,7 C 11,8 C 0,0 km/h (0 Bft)
24.07.2021 06:14 24,7 C 11,8 C 12,2 C 7,7 C 54 % 87 % 91 % 1018,1 hPa 0,0 l/m 0,0 km/h (0 Bft) S 180 9,7 C 11,8 C 0,0 km/h (0 Bft)
24.07.2021 06:12 24,7 C 11,7 C 12,0 C 7,7 C 54 % 87 % 91 % 1018,1 hPa 0,0 l/m 0,0 km/h (0 Bft) O-SO 112 9,6 C 11,7 C 0,0 km/h (0 Bft)
24.07.2021 06:10 24,7 C 11,7 C 12,1 C 7,7 C 54 % 87 % 91 % 1018,1 hPa 0,0 l/m 0,0 km/h (0 Bft) SO 135 9,6 C 11,7 C 0,0 km/h (0 Bft)
24.07.2021 06:08 24,7 C 11,5 C 12,0 C 7,7 C 54 % 87 % 91 % 1018,1 hPa 0,0 l/m 0,0 km/h (0 Bft) W-NW 292 9,4 C 11,5 C 0,0 km/h (0 Bft)
24.07.2021 06:06 24,7 C 11,5 C 12,1 C 7,7 C 54 % 87 % 91 % 1018,1 hPa 0,0 l/m 0,0 km/h (0 Bft) S-SO 157 9,4 C 11,5 C 0,0 km/h (0 Bft)
24.07.2021 06:04 24,7 C 11,4 C 11,9 C 7,7 C 54 % 87 % 91 % 1018,1 hPa 0,0 l/m 0,0 km/h (0 Bft) NO 45 9,3 C 11,4 C 0,0 km/h (0 Bft)
24.07.2021 06:02 24,7 C 11,4 C 11,9 C 7,6 C 54 % 87 % 91 % 1018,1 hPa 0,0 l/m 0,0 km/h (0 Bft) S-SO 157 9,3 C 11,4 C 0,0 km/h (0 Bft)
24.07.2021 06:00 24,7 C 11,4 C 11,9 C 7,6 C 54 % 87 % 91 % 1018,1 hPa 0,0 l/m 0,0 km/h (0 Bft) S-SW 202 9,3 C 11,4 C 0,0 km/h (0 Bft)
24.07.2021 05:58 24,7 C 11,4 C 11,8 C 7,6 C 54 % 87 % 91 % 1017,9 hPa 0,0 l/m 0,0 km/h (0 Bft) SW 225 9,3 C 11,4 C 0,0 km/h (0 Bft)
24.07.2021 05:56 24,7 C 11,4 C 11,8 C 7,6 C 54 % 87 % 91 % 1017,9 hPa 0,0 l/m 0,0 km/h (0 Bft) S-SW 202 9,3 C 11,4 C 0,0 km/h (0 Bft)
24.07.2021 05:54 24,7 C 11,4 C 11,8 C 7,6 C 54 % 87 % 91 % 1017,9 hPa 0,0 l/m 0,0 km/h (0 Bft) S-SW 202 9,3 C 11,4 C 0,0 km/h (0 Bft)
24.07.2021 05:52 24,7 C 11,4 C 11,7 C 7,5 C 54 % 87 % 91 % 1017,9 hPa 0,0 l/m 0,0 km/h (0 Bft) W-SW 247 9,3 C 11,4 C 0,0 km/h (0 Bft)
24.07.2021 05:50 24,7 C 11,4 C 11,5 C 7,5 C 54 % 87 % 91 % 1017,9 hPa 0,0 l/m 0,0 km/h (0 Bft) S-SW 202 9,3 C 11,4 C 0,0 km/h (0 Bft)
24.07.2021 05:48 24,7 C 11,4 C 11,5 C 7,5 C 54 % 87 % 91 % 1017,9 hPa 0,0 l/m 0,0 km/h (0 Bft) N 360 9,3 C 11,4 C 0,0 km/h (0 Bft)
24.07.2021 05:46 24,7 C 11,4 C 11,7 C 7,5 C 54 % 87 % 91 % 1017,9 hPa 0,0 l/m 0,0 km/h (0 Bft) NO 45 9,3 C 11,4 C 0,0 km/h (0 Bft)
24.07.2021 05:44 24,7 C 11,3 C 11,7 C 7,5 C 54 % 87 % 91 % 1017,9 hPa 0,0 l/m 0,0 km/h (0 Bft) O-NO 67 9,2 C 11,3 C 0,0 km/h (0 Bft)
24.07.2021 05:42 24,7 C 11,3 C 11,5 C 7,5 C 54 % 87 % 91 % 1017,9 hPa 0,0 l/m 0,0 km/h (0 Bft) S-SW 202 9,2 C 11,3 C 0,0 km/h (0 Bft)
24.07.2021 05:40 24,8 C 11,3 C 11,4 C 7,5 C 54 % 87 % 91 % 1017,9 hPa 0,0 l/m 0,0 km/h (0 Bft) S-SO 157 9,2 C 11,3 C 0,0 km/h (0 Bft)
24.07.2021 05:38 24,8 C 11,3 C 11,7 C 7,5 C 54 % 87 % 91 % 1017,7 hPa 0,0 l/m 0,0 km/h (0 Bft) SO 135 9,2 C 11,3 C 0,0 km/h (0 Bft)
24.07.2021 05:36 24,8 C 11,3 C 11,8 C 7,5 C 54 % 87 % 91 % 1017,7 hPa 0,0 l/m 0,0 km/h (0 Bft) S 180 9,2 C 11,3 C 0,0 km/h (0 Bft)
24.07.2021 05:34 24,7 C 11,3 C 11,7 C 7,6 C 54 % 87 % 91 % 1017,7 hPa 0,0 l/m 0,0 km/h (0 Bft) S-SO 157 9,2 C 11,3 C 0,0 km/h (0 Bft)
24.07.2021 05:32 24,8 C 11,3 C 11,7 C 7,6 C 54 % 87 % 91 % 1017,7 hPa 0,0 l/m 0,0 km/h (0 Bft) SW 225 9,2 C 11,3 C 0,0 km/h (0 Bft)
24.07.2021 05:30 24,8 C 11,3 C 11,5 C 7,6 C 54 % 87 % 91 % 1017,7 hPa 0,0 l/m 0,0 km/h (0 Bft) O-SO 112 9,2 C 11,3 C 0,0 km/h (0 Bft)
24.07.2021 05:28 24,8 C 11,3 C 11,6 C 7,6 C 54 % 87 % 91 % 1017,7 hPa 0,0 l/m 0,0 km/h (0 Bft) O-SO 112 9,2 C 11,3 C 0,0 km/h (0 Bft)
24.07.2021 05:26 24,8 C 11,3 C 11,4 C 7,6 C 54 % 87 % 91 % 1017,7 hPa 0,0 l/m 0,0 km/h (0 Bft) NW 315 9,2 C 11,3 C 0,0 km/h (0 Bft)
24.07.2021 05:24 24,8 C 11,1 C 11,1 C 7,6 C 54 % 87 % 91 % 1017,7 hPa 0,0 l/m 0,0 km/h (0 Bft) O-NO 67 9,0 C 11,1 C 0,0 km/h (0 Bft)
24.07.2021 05:22 24,8 C 11,1 C 11,4 C 7,6 C 54 % 87 % 91 % 1017,7 hPa 0,0 l/m 0,0 km/h (0 Bft) N-NO 22 9,0 C 11,1 C 0,0 km/h (0 Bft)
24.07.2021 05:20 24,8 C 11,1 C 11,5 C 7,6 C 54 % 87 % 91 % 1017,7 hPa 0,0 l/m 0,0 km/h (0 Bft) W-NW 292 9,0 C 11,1 C 0,0 km/h (0 Bft)
24.07.2021 05:18 24,8 C 11,1 C 11,7 C 7,6 C 54 % 87 % 91 % 1018,1 hPa 0,0 l/m 0,0 km/h (0 Bft) SW 225 9,0 C 11,1 C 0,0 km/h (0 Bft)
24.07.2021 05:16 24,8 C 11,1 C 11,6 C 7,6 C 54 % 87 % 91 % 1018,1 hPa 0,0 l/m 0,0 km/h (0 Bft) W 270 9,0 C 11,1 C 0,0 km/h (0 Bft)
24.07.2021 05:14 24,8 C 11,1 C 11,8 C 7,6 C 54 % 87 % 91 % 1018,1 hPa 0,0 l/m 0,0 km/h (0 Bft) SW 225 9,0 C 11,1 C 0,0 km/h (0 Bft)
24.07.2021 05:12 24,8 C 11,1 C 11,5 C 7,6 C 54 % 87 % 91 % 1018,1 hPa 0,0 l/m 0,0 km/h (0 Bft) W-SW 247 9,0 C 11,1 C 0,0 km/h (0 Bft)
24.07.2021 05:10 24,8 C 11,3 C 11,6 C 7,5 C 54 % 87 % 91 % 1018,1 hPa 0,0 l/m 0,0 km/h (0 Bft) SO 135 9,2 C 11,3 C 0,0 km/h (0 Bft)
24.07.2021 05:08 24,8 C 11,3 C 11,6 C 7,5 C 54 % 87 % 91 % 1018,1 hPa 0,0 l/m 0,0 km/h (0 Bft) S 180 9,2 C 11,3 C 0,0 km/h (0 Bft)
24.07.2021 05:06 24,8 C 11,1 C 11,5 C 7,6 C 54 % 87 % 91 % 1018,1 hPa 0,0 l/m 0,0 km/h (0 Bft) S 180 9,0 C 11,1 C 0,0 km/h (0 Bft)
24.07.2021 05:04 24,8 C 11,1 C 11,6 C 7,6 C 54 % 87 % 91 % 1018,1 hPa 0,0 l/m 0,0 km/h (0 Bft) O-SO 112 9,0 C 11,1 C 0,0 km/h (0 Bft)
24.07.2021 05:02 24,8 C 11,3 C 11,7 C 7,6 C 54 % 87 % 91 % 1018,1 hPa 0,0 l/m 0,0 km/h (0 Bft) S-SO 157 9,2 C 11,3 C 0,0 km/h (0 Bft)
24.07.2021 05:00 24,8 C 11,3 C 11,6 C 7,6 C 54 % 87 % 91 % 1018,1 hPa 0,0 l/m 0,0 km/h (0 Bft) S-SW 202 9,2 C 11,3 C 0,0 km/h (0 Bft)
24.07.2021 04:58 24,8 C 11,3 C 11,4 C 7,6 C 54 % 87 % 91 % 1017,9 hPa 0,0 l/m 0,0 km/h (0 Bft) S-SO 157 9,2 C 11,3 C 0,0 km/h (0 Bft)
24.07.2021 04:56 24,8 C 11,3 C 11,4 C 7,6 C 54 % 87 % 91 % 1017,9 hPa 0,0 l/m 0,0 km/h (0 Bft) SO 135 9,2 C 11,3 C 0,0 km/h (0 Bft)
24.07.2021 04:54 24,8 C 11,3 C 11,5 C 7,7 C 55 % 87 % 91 % 1017,9 hPa 0,0 l/m 0,0 km/h (0 Bft) W-SW 247 9,2 C 11,3 C 0,0 km/h (0 Bft)
24.07.2021 04:52 24,8 C 11,4 C 11,5 C 7,7 C 55 % 87 % 91 % 1017,9 hPa 0,0 l/m 0,0 km/h (0 Bft) SO 135 9,3 C 11,4 C 0,0 km/h (0 Bft)
24.07.2021 04:50 24,8 C 11,4 C 11,5 C 7,8 C 55 % 87 % 91 % 1017,9 hPa 0,0 l/m 0,0 km/h (0 Bft) S-SO 157 9,3 C 11,4 C 0,0 km/h (0 Bft)
24.07.2021 04:48 24,8 C 11,4 C 11,5 C 7,8 C 55 % 87 % 91 % 1017,9 hPa 0,0 l/m 0,0 km/h (0 Bft) N 360 9,3 C 11,4 C 0,0 km/h (0 Bft)
24.07.2021 04:46 24,8 C 11,4 C 11,6 C 7,8 C 55 % 87 % 91 % 1017,9 hPa 0,0 l/m 0,0 km/h (0 Bft) S-SO 157 9,3 C 11,4 C 0,0 km/h (0 Bft)
24.07.2021 04:44 24,8 C 11,4 C 11,6 C 7,8 C 55 % 87 % 91 % 1017,9 hPa 0,0 l/m 0,0 km/h (0 Bft) S-SW 202 9,3 C 11,4 C 0,0 km/h (0 Bft)
24.07.2021 04:42 24,8 C 11,4 C 11,6 C 7,9 C 55 % 87 % 91 % 1017,9 hPa 0,0 l/m 0,0 km/h (0 Bft) S-SO 157 9,3 C 11,4 C 0,0 km/h (0 Bft)
24.07.2021 04:40 24,8 C 11,4 C 11,7 C 7,9 C 55 % 87 % 91 % 1017,9 hPa 0,0 l/m 0,0 km/h (0 Bft) S-SW 202 9,3 C 11,4 C 0,0 km/h (0 Bft)
24.07.2021 04:38 24,8 C 11,4 C 11,6 C 7,9 C 55 % 87 % 91 % 1018,1 hPa 0,0 l/m 0,0 km/h (0 Bft) SW 225 9,3 C 11,4 C 0,0 km/h (0 Bft)
24.07.2021 04:36 24,8 C 11,5 C 11,6 C 7,9 C 55 % 87 % 91 % 1018,1 hPa 0,0 l/m 0,0 km/h (0 Bft) S-SO 157 9,4 C 11,5 C 0,0 km/h (0 Bft)
24.07.2021 04:34 24,8 C 11,5 C 11,9 C 7,9 C 55 % 87 % 91 % 1018,1 hPa 0,0 l/m 0,0 km/h (0 Bft) O-NO 67 9,4 C 11,5 C 0,0 km/h (0 Bft)
24.07.2021 04:32 24,8 C 11,4 C 11,7 C 7,9 C 55 % 87 % 91 % 1018,1 hPa 0,0 l/m 0,0 km/h (0 Bft) S-SO 157 9,3 C 11,4 C 0,0 km/h (0 Bft)
24.07.2021 04:30 24,8 C 11,4 C 11,6 C 7,9 C 55 % 87 % 91 % 1018,1 hPa 0,0 l/m 0,0 km/h (0 Bft) S-SW 202 9,3 C 11,4 C 0,0 km/h (0 Bft)
24.07.2021 04:28 24,8 C 11,4 C 11,7 C 7,9 C 55 % 87 % 91 % 1018,1 hPa 0,0 l/m 0,0 km/h (0 Bft) S 180 9,3 C 11,4 C 0,0 km/h (0 Bft)
24.07.2021 04:26 24,8 C 11,3 C 11,6 C 7,9 C 55 % 87 % 91 % 1018,1 hPa 0,0 l/m 0,0 km/h (0 Bft) SW 225 9,2 C 11,3 C 0,0 km/h (0 Bft)
24.07.2021 04:24 24,8 C 11,3 C 11,9 C 7,9 C 55 % 87 % 91 % 1018,1 hPa 0,0 l/m 0,0 km/h (0 Bft) W-SW 247 9,2 C 11,3 C 0,0 km/h (0 Bft)
24.07.2021 04:22 24,8 C 11,3 C 11,8 C 7,9 C 55 % 87 % 91 % 1018,1 hPa 0,0 l/m 0,0 km/h (0 Bft) W 270 9,2 C 11,3 C 0,0 km/h (0 Bft)
24.07.2021 04:20 24,8 C 11,1 C 11,7 C 7,9 C 55 % 87 % 91 % 1018,1 hPa 0,0 l/m 0,0 km/h (0 Bft) S-SO 157 9,0 C 11,1 C 0,0 km/h (0 Bft)
24.07.2021 04:18 24,8 C 11,1 C 11,8 C 7,9 C 55 % 87 % 91 % 1018,2 hPa 0,0 l/m 0,0 km/h (0 Bft) SO 135 9,0 C 11,1 C 0,0 km/h (0 Bft)
24.07.2021 04:16 24,8 C 11,0 C 11,7 C 7,9 C 55 % 87 % 91 % 1018,2 hPa 0,0 l/m 0,0 km/h (0 Bft) S-SW 202 8,9 C 11,0 C 0,0 km/h (0 Bft)
24.07.2021 04:14 24,8 C 11,0 C 11,5 C 7,9 C 55 % 87 % 91 % 1018,2 hPa 0,0 l/m 0,0 km/h (0 Bft) S-SO 157 8,9 C 11,0 C 0,0 km/h (0 Bft)
24.07.2021 04:12 24,8 C 11,0 C 11,3 C 7,9 C 55 % 87 % 91 % 1018,2 hPa 0,0 l/m 0,0 km/h (0 Bft) S 180 8,9 C 11,0 C 0,0 km/h (0 Bft)
24.07.2021 04:10 24,8 C 11,0 C 10,8 C 7,9 C 55 % 87 % 91 % 1018,2 hPa 0,0 l/m 0,0 km/h (0 Bft) O-NO 67 8,9 C 11,0 C 0,0 km/h (0 Bft)
24.07.2021 04:08 24,8 C 11,0 C 11,1 C 8,0 C 55 % 87 % 91 % 1018,2 hPa 0,0 l/m 0,0 km/h (0 Bft) W-NW 292 8,9 C 11,0 C 0,0 km/h (0 Bft)
24.07.2021 04:06 24,8 C 11,0 C 11,7 C 8,0 C 55 % 87 % 91 % 1018,2 hPa 0,0 l/m 0,0 km/h (0 Bft) S-SO 157 8,9 C 11,0 C 0,0 km/h (0 Bft)
24.07.2021 04:04 24,8 C 11,0 C 11,7 C 8,0 C 55 % 87 % 91 % 1018,2 hPa 0,0 l/m 0,0 km/h (0 Bft) S 180 8,9 C 11,0 C 0,0 km/h (0 Bft)
24.07.2021 04:02 24,8 C 11,0 C 11,6 C 8,0 C 55 % 87 % 91 % 1018,2 hPa 0,0 l/m 0,0 km/h (0 Bft) S 180 8,9 C 11,0 C 0,0 km/h (0 Bft)
24.07.2021 04:00 24,8 C 11,0 C 11,6 C 8,0 C 55 % 87 % 91 % 1018,2 hPa 0,0 l/m 0,0 km/h (0 Bft) S 180 8,9 C 11,0 C 0,0 km/h (0 Bft)
24.07.2021 03:58 24,8 C 11,0 C 11,1 C 8,0 C 55 % 86 % 91 % 1018,6 hPa 0,0 l/m 0,0 km/h (0 Bft) SW 225 8,7 C 11,0 C 0,0 km/h (0 Bft)
24.07.2021 03:56 24,8 C 11,1 C 10,9 C 8,0 C 55 % 86 % 91 % 1018,6 hPa 0,0 l/m 0,0 km/h (0 Bft) S-SW 202 8,8 C 11,1 C 0,0 km/h (0 Bft)
24.07.2021 03:54 24,8 C 11,1 C 10,9 C 8,0 C 55 % 86 % 91 % 1018,6 hPa 0,0 l/m 0,0 km/h (0 Bft) NO 45 8,8 C 11,1 C 0,0 km/h (0 Bft)
24.07.2021 03:52 24,9 C 11,1 C 11,5 C 8,1 C 55 % 86 % 91 % 1018,6 hPa 0,0 l/m 0,0 km/h (0 Bft) O 90 8,8 C 11,1 C 0,0 km/h (0 Bft)
24.07.2021 03:50 24,8 C 11,1 C 11,4 C 8,1 C 55 % 86 % 91 % 1018,6 hPa 0,0 l/m 0,0 km/h (0 Bft) O-SO 112 8,8 C 11,1 C 0,0 km/h (0 Bft)
24.07.2021 03:48 24,8 C 11,1 C 11,6 C 8,1 C 55 % 86 % 91 % 1018,6 hPa 0,0 l/m 0,0 km/h (0 Bft) O-SO 112 8,8 C 11,1 C 0,0 km/h (0 Bft)
24.07.2021 03:46 24,8 C 11,1 C 11,7 C 8,1 C 55 % 86 % 91 % 1018,6 hPa 0,0 l/m 0,0 km/h (0 Bft) O-SO 112 8,8 C 11,1 C 0,0 km/h (0 Bft)
24.07.2021 03:44 24,8 C 11,1 C 11,7 C 8,1 C 55 % 86 % 90 % 1018,6 hPa 0,0 l/m 0,0 km/h (0 Bft) S-SO 157 8,8 C 11,1 C 0,0 km/h (0 Bft)
24.07.2021 03:42 24,8 C 11,1 C 11,6 C 8,1 C 55 % 86 % 90 % 1018,6 hPa 0,0 l/m 0,0 km/h (0 Bft) S-SO 157 8,8 C 11,1 C 0,0 km/h (0 Bft)
24.07.2021 03:40 24,8 C 11,3 C 11,3 C 8,1 C 55 % 86 % 90 % 1018,6 hPa 0,0 l/m 0,0 km/h (0 Bft) S-SW 202 9,0 C 11,3 C 0,0 km/h (0 Bft)
24.07.2021 03:38 24,8 C 11,3 C 11,4 C 8,1 C 55 % 86 % 90 % 1018,9 hPa 0,0 l/m 0,0 km/h (0 Bft) S 180 9,0 C 11,3 C 0,0 km/h (0 Bft)
24.07.2021 03:36 24,8 C 11,3 C 11,8 C 8,1 C 55 % 86 % 90 % 1018,9 hPa 0,0 l/m 0,0 km/h (0 Bft) S-SO 157 9,0 C 11,3 C 0,0 km/h (0 Bft)
24.07.2021 03:34 24,8 C 11,3 C 11,8 C 8,1 C 55 % 86 % 90 % 1018,9 hPa 0,0 l/m 0,0 km/h (0 Bft) NO 45 9,0 C 11,3 C 0,0 km/h (0 Bft)
24.07.2021 03:32 24,9 C 11,3 C 11,8 C 8,1 C 55 % 86 % 90 % 1018,9 hPa 0,0 l/m 0,0 km/h (0 Bft) S-SW 202 9,0 C 11,3 C 0,0 km/h (0 Bft)
24.07.2021 03:30 24,8 C 11,3 C 11,7 C 8,1 C 55 % 86 % 90 % 1018,9 hPa 0,0 l/m 0,0 km/h (0 Bft) SO 135 9,0 C 11,3 C 0,0 km/h (0 Bft)
24.07.2021 03:28 24,8 C 11,4 C 11,8 C 8,2 C 55 % 86 % 90 % 1018,9 hPa 0,0 l/m 0,0 km/h (0 Bft) O-SO 112 9,1 C 11,4 C 0,0 km/h (0 Bft)
24.07.2021 03:26 24,8 C 11,4 C 11,7 C 8,2 C 55 % 86 % 90 % 1018,9 hPa 0,0 l/m 0,0 km/h (0 Bft) S-SW 202 9,1 C 11,4 C 0,0 km/h (0 Bft)
24.07.2021 03:24 24,9 C 11,3 C 11,9 C 8,2 C 55 % 86 % 90 % 1018,9 hPa 0,0 l/m 0,0 km/h (0 Bft) S-SO 157 9,0 C 11,3 C 0,0 km/h (0 Bft)
24.07.2021 03:22 24,8 C 11,1 C 11,6 C 8,2 C 55 % 86 % 90 % 1018,9 hPa 0,0 l/m 0,0 km/h (0 Bft) S-SO 157 8,8 C 11,1 C 0,0 km/h (0 Bft)
24.07.2021 03:20 24,8 C 11,1 C 11,4 C 8,3 C 55 % 86 % 90 % 1018,9 hPa 0,0 l/m 0,0 km/h (0 Bft) S-SO 157 8,8 C 11,1 C 0,0 km/h (0 Bft)
24.07.2021 03:18 24,8 C 11,1 C 11,2 C 8,3 C 55 % 86 % 90 % 1018,9 hPa 0,0 l/m 0,0 km/h (0 Bft) S-SO 157 8,8 C 11,1 C 0,0 km/h (0 Bft)
24.07.2021 03:16 24,9 C 11,1 C 10,9 C 8,5 C 55 % 86 % 90 % 1018,9 hPa 0,0 l/m 0,0 km/h (0 Bft) SW 225 8,8 C 11,1 C 0,0 km/h (0 Bft)
24.07.2021 03:14 24,9 C 11,1 C 11,2 C 8,5 C 55 % 86 % 90 % 1018,9 hPa 0,0 l/m 0,0 km/h (0 Bft) S-SO 157 8,8 C 11,1 C 0,0 km/h (0 Bft)
24.07.2021 03:12 24,9 C 11,1 C 11,0 C 8,5 C 55 % 86 % 90 % 1018,9 hPa 0,0 l/m 0,0 km/h (0 Bft) NO 45 8,8 C 11,1 C 0,0 km/h (0 Bft)
24.07.2021 03:10 24,9 C 11,1 C 11,0 C 8,3 C 55 % 86 % 90 % 1018,9 hPa 0,0 l/m 0,0 km/h (0 Bft) S-SO 157 8,8 C 11,1 C 0,0 km/h (0 Bft)
24.07.2021 03:08 24,8 C 11,1 C 10,8 C 8,5 C 55 % 86 % 90 % 1018,9 hPa 0,0 l/m 0,0 km/h (0 Bft) O-SO 112 8,8 C 11,1 C 0,0 km/h (0 Bft)
24.07.2021 03:06 24,9 C 11,3 C 11,1 C 8,5 C 55 % 86 % 90 % 1018,9 hPa 0,0 l/m 0,0 km/h (0 Bft) S-SO 157 9,0 C 11,3 C 0,0 km/h (0 Bft)
24.07.2021 03:04 24,9 C 11,3 C 11,3 C 8,5 C 55 % 86 % 90 % 1018,9 hPa 0,0 l/m 0,0 km/h (0 Bft) W 270 9,0 C 11,3 C 0,0 km/h (0 Bft)
24.07.2021 03:02 24,8 C 11,3 C 11,5 C 8,5 C 55 % 86 % 90 % 1018,9 hPa 0,0 l/m 0,0 km/h (0 Bft) S 180 9,0 C 11,3 C 0,0 km/h (0 Bft)
24.07.2021 03:00 24,9 C 11,4 C 11,1 C 8,5 C 55 % 86 % 90 % 1018,9 hPa 0,0 l/m 0,0 km/h (0 Bft) S 180 9,1 C 11,4 C 0,0 km/h (0 Bft)
24.07.2021 02:58 24,9 C 11,4 C 11,1 C 8,6 C 55 % 86 % 90 % 1018,9 hPa 0,0 l/m 0,0 km/h (0 Bft) S-SW 202 9,1 C 11,4 C 0,0 km/h (0 Bft)
24.07.2021 02:56 24,9 C 11,4 C 11,2 C 8,6 C 55 % 86 % 90 % 1018,9 hPa 0,0 l/m 0,0 km/h (0 Bft) O-SO 112 9,1 C 11,4 C 0,0 km/h (0 Bft)
24.07.2021 02:54 24,9 C 11,4 C 11,2 C 8,6 C 55 % 86 % 90 % 1018,9 hPa 0,0 l/m 0,0 km/h (0 Bft) S-SO 157 9,1 C 11,4 C 0,0 km/h (0 Bft)
24.07.2021 02:52 24,9 C 11,4 C 11,5 C 8,6 C 55 % 86 % 90 % 1018,9 hPa 0,0 l/m 0,0 km/h (0 Bft) S-SO 157 9,1 C 11,4 C 0,0 km/h (0 Bft)
24.07.2021 02:50 24,9 C 11,4 C 11,5 C 8,6 C 55 % 86 % 90 % 1018,9 hPa 0,0 l/m 0,0 km/h (0 Bft) W-NW 292 9,1 C 11,4 C 0,0 km/h (0 Bft)
24.07.2021 02:48 24,9 C 11,4 C 11,3 C 8,6 C 55 % 86 % 90 % 1018,9 hPa 0,0 l/m 0,0 km/h (0 Bft) N-NW 337 9,1 C 11,4 C 0,0 km/h (0 Bft)
24.07.2021 02:46 24,9 C 11,4 C 11,7 C 8,6 C 55 % 86 % 90 % 1018,9 hPa 0,0 l/m 0,0 km/h (0 Bft) SO 135 9,1 C 11,4 C 0,0 km/h (0 Bft)
24.07.2021 02:44 24,9 C 11,4 C 11,7 C 8,6 C 55 % 86 % 90 % 1018,9 hPa 0,0 l/m 0,0 km/h (0 Bft) O 90 9,1 C 11,4 C 0,0 km/h (0 Bft)
24.07.2021 02:42 24,9 C 11,4 C 11,7 C 8,6 C 55 % 86 % 90 % 1018,9 hPa 0,0 l/m 0,0 km/h (0 Bft) S 180 9,1 C 11,4 C 0,0 km/h (0 Bft)
24.07.2021 02:40 24,9 C 11,4 C 11,4 C 8,6 C 55 % 86 % 90 % 1018,9 hPa 0,0 l/m 0,0 km/h (0 Bft) S 180 9,1 C 11,4 C 0,0 km/h (0 Bft)
24.07.2021 02:38 24,9 C 11,4 C 11,3 C 8,6 C 55 % 86 % 90 % 1019,1 hPa 0,0 l/m 0,0 km/h (0 Bft) S-SW 202 9,1 C 11,4 C 0,0 km/h (0 Bft)
24.07.2021 02:36 24,9 C 11,4 C 11,2 C 8,5 C 55 % 86 % 90 % 1019,1 hPa 0,0 l/m 0,0 km/h (0 Bft) O-SO 112 9,1 C 11,4 C 0,0 km/h (0 Bft)
24.07.2021 02:34 24,9 C 11,4 C 11,2 C 8,6 C 55 % 86 % 90 % 1019,1 hPa 0,0 l/m 0,0 km/h (0 Bft) S-SO 157 9,1 C 11,4 C 0,0 km/h (0 Bft)
24.07.2021 02:32 24,9 C 11,4 C 11,3 C 8,6 C 55 % 86 % 90 % 1019,1 hPa 0,0 l/m 0,0 km/h (0 Bft) S 180 9,1 C 11,4 C 0,0 km/h (0 Bft)
24.07.2021 02:30 24,9 C 11,4 C 11,5 C 8,6 C 55 % 86 % 90 % 1019,1 hPa 0,0 l/m 0,0 km/h (0 Bft) O-SO 112 9,1 C 11,4 C 0,0 km/h (0 Bft)
24.07.2021 02:28 24,9 C 11,4 C 11,4 C 8,8 C 55 % 86 % 90 % 1019,1 hPa 0,0 l/m 0,0 km/h (0 Bft) O-SO 112 9,1 C 11,4 C 0,0 km/h (0 Bft)
24.07.2021 02:26 24,9 C 11,4 C 11,6 C 8,8 C 55 % 86 % 90 % 1019,1 hPa 0,0 l/m 0,0 km/h (0 Bft) O-SO 112 9,1 C 11,4 C 0,0 km/h (0 Bft)
24.07.2021 02:24 24,9 C 11,5 C 11,7 C 8,8 C 55 % 85 % 90 % 1019,1 hPa 0,0 l/m 0,0 km/h (0 Bft) NW 315 9,1 C 11,5 C 0,0 km/h (0 Bft)
24.07.2021 02:22 24,9 C 11,5 C 11,5 C 8,9 C 55 % 85 % 90 % 1019,1 hPa 0,0 l/m 0,0 km/h (0 Bft) O-SO 112 9,1 C 11,5 C 0,0 km/h (0 Bft)
24.07.2021 02:20 24,9 C 11,5 C 11,3 C 8,9 C 55 % 85 % 90 % 1019,1 hPa 0,0 l/m 0,0 km/h (0 Bft) W-SW 247 9,1 C 11,5 C 0,0 km/h (0 Bft)
24.07.2021 02:18 24,9 C 11,5 C 11,7 C 9,0 C 55 % 85 % 90 % 1019,6 hPa 0,0 l/m 0,0 km/h (0 Bft) N-NO 22 9,1 C 11,5 C 0,0 km/h (0 Bft)
24.07.2021 02:16 24,9 C 11,5 C 11,7 C 9,0 C 55 % 85 % 90 % 1019,6 hPa 0,0 l/m 0,0 km/h (0 Bft) S 180 9,1 C 11,5 C 0,0 km/h (0 Bft)
24.07.2021 02:14 25,0 C 11,5 C 11,5 C 8,9 C 55 % 85 % 90 % 1019,6 hPa 0,0 l/m 0,0 km/h (0 Bft) O-SO 112 9,1 C 11,5 C 0,0 km/h (0 Bft)
24.07.2021 02:12 24,9 C 11,5 C 11,6 C 8,9 C 55 % 85 % 90 % 1019,6 hPa 0,0 l/m 0,0 km/h (0 Bft) O-SO 112 9,1 C 11,5 C 0,0 km/h (0 Bft)
24.07.2021 02:10 24,9 C 11,5 C 11,6 C 9,0 C 55 % 85 % 90 % 1019,6 hPa 0,0 l/m 0,0 km/h (0 Bft) O-SO 112 9,1 C 11,5 C 0,0 km/h (0 Bft)
24.07.2021 02:08 24,9 C 11,5 C 11,6 C 9,0 C 55 % 85 % 90 % 1019,6 hPa 0,0 l/m 0,0 km/h (0 Bft) S-SW 202 9,1 C 11,5 C 0,0 km/h (0 Bft)
24.07.2021 02:06 24,9 C 11,7 C 11,7 C 9,0 C 55 % 85 % 90 % 1019,6 hPa 0,0 l/m 0,0 km/h (0 Bft) S-SO 157 9,3 C 11,7 C 0,0 km/h (0 Bft)
24.07.2021 02:04 24,9 C 11,7 C 11,3 C 9,0 C 55 % 85 % 90 % 1019,6 hPa 0,0 l/m 0,0 km/h (0 Bft) S-SW 202 9,3 C 11,7 C 0,0 km/h (0 Bft)
24.07.2021 02:02 24,9 C 11,7 C 11,6 C 9,0 C 55 % 85 % 89 % 1019,6 hPa 0,0 l/m 0,0 km/h (0 Bft) O 90 9,3 C 11,7 C 0,0 km/h (0 Bft)
24.07.2021 02:00 24,9 C 11,7 C 11,7 C 9,0 C 55 % 85 % 89 % 1019,6 hPa 0,0 l/m 0,0 km/h (0 Bft) NO 45 9,3 C 11,7 C 0,0 km/h (0 Bft)
24.07.2021 01:58 24,9 C 11,8 C 11,8 C 9,0 C 55 % 85 % 89 % 1019,6 hPa 0,0 l/m 0,0 km/h (0 Bft) NO 45 9,4 C 11,8 C 0,0 km/h (0 Bft)
24.07.2021 01:56 24,9 C 11,8 C 11,9 C 9,1 C 55 % 85 % 89 % 1019,6 hPa 0,0 l/m 0,0 km/h (0 Bft) S 180 9,4 C 11,8 C 0,0 km/h (0 Bft)
24.07.2021 01:54 24,9 C 11,8 C 11,9 C 9,1 C 55 % 85 % 89 % 1019,6 hPa 0,0 l/m 0,0 km/h (0 Bft) S-SW 202 9,4 C 11,8 C 0,0 km/h (0 Bft)
24.07.2021 01:52 25,0 C 11,8 C 11,5 C 9,1 C 55 % 85 % 89 % 1019,6 hPa 0,0 l/m 0,0 km/h (0 Bft) S-SO 157 9,4 C 11,8 C 0,0 km/h (0 Bft)
24.07.2021 01:50 24,9 C 11,8 C 11,5 C 9,2 C 55 % 85 % 89 % 1019,6 hPa 0,0 l/m 0,0 km/h (0 Bft) O 90 9,4 C 11,8 C 0,0 km/h (0 Bft)
24.07.2021 01:48 24,9 C 11,8 C 11,3 C 9,3 C 55 % 85 % 89 % 1019,6 hPa 0,0 l/m 0,0 km/h (0 Bft) NW 315 9,4 C 11,8 C 0,0 km/h (0 Bft)
24.07.2021 01:46 25,0 C 11,9 C 11,8 C 9,3 C 55 % 85 % 89 % 1019,6 hPa 0,0 l/m 0,0 km/h (0 Bft) S-SO 157 9,5 C 11,9 C 0,0 km/h (0 Bft)
24.07.2021 01:44 25,0 C 11,9 C 12,0 C 9,3 C 55 % 85 % 89 % 1019,6 hPa 0,0 l/m 0,0 km/h (0 Bft) N-NO 22 9,5 C 11,9 C 0,0 km/h (0 Bft)
24.07.2021 01:42 25,0 C 11,9 C 12,1 C 9,3 C 55 % 85 % 89 % 1019,6 hPa 0,0 l/m 0,0 km/h (0 Bft) S 180 9,5 C 11,9 C 0,0 km/h (0 Bft)
24.07.2021 01:40 25,0 C 12,0 C 12,1 C 9,3 C 55 % 85 % 89 % 1019,6 hPa 0,0 l/m 0,0 km/h (0 Bft) SW 225 9,6 C 12,0 C 0,0 km/h (0 Bft)
24.07.2021 01:38 25,0 C 12,0 C 12,2 C 9,3 C 55 % 85 % 89 % 1019,6 hPa 0,0 l/m 0,0 km/h (0 Bft) O-NO 67 9,6 C 12,0 C 0,0 km/h (0 Bft)
24.07.2021 01:36 25,0 C 12,0 C 12,0 C 9,3 C 55 % 85 % 89 % 1019,6 hPa 0,0 l/m 0,0 km/h (0 Bft) S-SW 202 9,6 C 12,0 C 0,0 km/h (0 Bft)
24.07.2021 01:34 25,0 C 12,0 C 12,1 C 9,4 C 55 % 84 % 89 % 1019,6 hPa 0,0 l/m 0,0 km/h (0 Bft) S-SO 157 9,4 C 12,0 C 0,0 km/h (0 Bft)
24.07.2021 01:32 25,0 C 12,0 C 12,0 C 9,4 C 55 % 84 % 89 % 1019,6 hPa 0,0 l/m 0,0 km/h (0 Bft) S-SW 202 9,4 C 12,0 C 0,0 km/h (0 Bft)
24.07.2021 01:30 25,0 C 12,0 C 11,7 C 9,4 C 55 % 84 % 89 % 1019,6 hPa 0,0 l/m 0,0 km/h (0 Bft) SW 225 9,4 C 12,0 C 0,0 km/h (0 Bft)
24.07.2021 01:28 25,0 C 12,0 C 11,6 C 9,4 C 55 % 84 % 89 % 1019,6 hPa 0,0 l/m 0,0 km/h (0 Bft) O-NO 67 9,4 C 12,0 C 0,0 km/h (0 Bft)
24.07.2021 01:26 25,0 C 12,0 C 12,0 C 9,4 C 55 % 84 % 89 % 1019,6 hPa 0,0 l/m 0,0 km/h (0 Bft) S-SO 157 9,4 C 12,0 C 0,0 km/h (0 Bft)
24.07.2021 01:24 25,0 C 12,0 C 12,2 C 9,4 C 55 % 84 % 89 % 1019,6 hPa 0,0 l/m 0,0 km/h (0 Bft) SO 135 9,4 C 12,0 C 0,0 km/h (0 Bft)
24.07.2021 01:22 25,0 C 12,1 C 12,1 C 9,5 C 55 % 84 % 89 % 1019,6 hPa 0,0 l/m 0,0 km/h (0 Bft) O-SO 112 9,5 C 12,1 C 0,0 km/h (0 Bft)
24.07.2021 01:20 25,0 C 12,1 C 12,0 C 9,5 C 55 % 84 % 89 % 1019,6 hPa 0,0 l/m 0,0 km/h (0 Bft) S-SO 157 9,5 C 12,1 C 0,0 km/h (0 Bft)
24.07.2021 01:18 25,0 C 12,2 C 11,8 C 9,5 C 55 % 84 % 89 % 1019,8 hPa 0,0 l/m 0,0 km/h (0 Bft) SO 135 9,6 C 12,2 C 0,0 km/h (0 Bft)
24.07.2021 01:16 25,0 C 12,2 C 12,2 C 9,5 C 55 % 84 % 89 % 1019,8 hPa 0,0 l/m 0,0 km/h (0 Bft) N 360 9,6 C 12,2 C 0,0 km/h (0 Bft)
24.07.2021 01:14 25,0 C 12,2 C 12,2 C 9,6 C 55 % 84 % 89 % 1019,8 hPa 0,0 l/m 0,0 km/h (0 Bft) W-SW 247 9,6 C 12,2 C 0,0 km/h (0 Bft)
24.07.2021 01:12 25,0 C 12,2 C 12,5 C 9,6 C 55 % 84 % 89 % 1019,8 hPa 0,0 l/m 0,0 km/h (0 Bft) SW 225 9,6 C 12,2 C 0,0 km/h (0 Bft)
24.07.2021 01:10 25,0 C 12,2 C 12,3 C 9,7 C 55 % 84 % 89 % 1019,8 hPa 0,0 l/m 0,0 km/h (0 Bft) SW 225 9,6 C 12,2 C 0,0 km/h (0 Bft)
24.07.2021 01:08 25,0 C 12,3 C 12,4 C 9,7 C 55 % 84 % 89 % 1019,8 hPa 0,0 l/m 0,0 km/h (0 Bft) W 270 9,7 C 12,3 C 0,0 km/h (0 Bft)
24.07.2021 01:06 25,0 C 12,3 C 12,2 C 9,7 C 55 % 84 % 89 % 1019,8 hPa 0,0 l/m 0,0 km/h (0 Bft) N-NW 337 9,7 C 12,3 C 0,0 km/h (0 Bft)
24.07.2021 01:04 25,0 C 12,3 C 12,1 C 9,7 C 55 % 84 % 89 % 1019,8 hPa 0,0 l/m 0,0 km/h (0 Bft) NW 315 9,7 C 12,3 C 0,0 km/h (0 Bft)
24.07.2021 01:02 25,0 C 12,3 C 12,2 C 9,7 C 55 % 84 % 89 % 1019,8 hPa 0,0 l/m 0,0 km/h (0 Bft) O-SO 112 9,7 C 12,3 C 0,0 km/h (0 Bft)
24.07.2021 01:00 25,0 C 12,4 C 12,5 C 9,7 C 55 % 84 % 89 % 1019,8 hPa 0,0 l/m 0,0 km/h (0 Bft) NO 45 9,8 C 12,4 C 0,0 km/h (0 Bft)
24.07.2021 00:58 25,0 C 12,4 C 12,6 C 9,9 C 55 % 84 % 89 % 1019,8 hPa 0,0 l/m 0,0 km/h (0 Bft) O-SO 112 9,8 C 12,4 C 0,0 km/h (0 Bft)
24.07.2021 00:56 25,0 C 12,4 C 12,5 C 9,9 C 55 % 84 % 89 % 1019,8 hPa 0,0 l/m 0,0 km/h (0 Bft) SW 225 9,8 C 12,4 C 0,0 km/h (0 Bft)
24.07.2021 00:54 25,0 C 12,4 C 12,3 C 9,9 C 55 % 84 % 89 % 1019,8 hPa 0,0 l/m 0,0 km/h (0 Bft) W-SW 247 9,8 C 12,4 C 0,0 km/h (0 Bft)
24.07.2021 00:52 25,0 C 12,4 C 12,2 C 10,0 C 55 % 84 % 89 % 1019,8 hPa 0,0 l/m 0,0 km/h (0 Bft) N-NW 337 9,8 C 12,4 C 0,0 km/h (0 Bft)
24.07.2021 00:50 25,0 C 12,5 C 12,4 C 10,0 C 55 % 84 % 89 % 1019,8 hPa 0,0 l/m 0,0 km/h (0 Bft) SO 135 9,9 C 12,5 C 0,0 km/h (0 Bft)
24.07.2021 00:48 25,0 C 12,5 C 12,4 C 10,0 C 55 % 84 % 89 % 1019,8 hPa 0,0 l/m 0,0 km/h (0 Bft) S-SW 202 9,9 C 12,5 C 0,0 km/h (0 Bft)
24.07.2021 00:46 25,0 C 12,6 C 12,5 C 10,1 C 55 % 84 % 89 % 1019,8 hPa 0,0 l/m 0,0 km/h (0 Bft) SO 135 10,0 C 12,6 C 0,0 km/h (0 Bft)
24.07.2021 00:44 25,0 C 12,6 C 12,5 C 10,1 C 55 % 84 % 89 % 1019,8 hPa 0,0 l/m 0,0 km/h (0 Bft) S-SW 202 10,0 C 12,6 C 0,0 km/h (0 Bft)
24.07.2021 00:42 25,0 C 12,7 C 12,5 C 10,2 C 55 % 84 % 89 % 1019,8 hPa 0,0 l/m 0,0 km/h (0 Bft) S-SW 202 10,1 C 12,7 C 0,0 km/h (0 Bft)
24.07.2021 00:40 25,0 C 12,7 C 12,1 C 10,2 C 55 % 84 % 89 % 1019,8 hPa 0,0 l/m 0,0 km/h (0 Bft) W 270 10,1 C 12,7 C 0,0 km/h (0 Bft)
24.07.2021 00:38 25,0 C 12,8 C 12,3 C 10,2 C 55 % 83 % 89 % 1019,8 hPa 0,0 l/m 0,0 km/h (0 Bft) O-SO 112 10,0 C 12,8 C 0,0 km/h (0 Bft)
24.07.2021 00:36 25,0 C 12,8 C 12,5 C 10,2 C 55 % 83 % 89 % 1019,8 hPa 0,0 l/m 0,0 km/h (0 Bft) S-SO 157 10,0 C 12,8 C 0,0 km/h (0 Bft)
24.07.2021 00:34 25,0 C 12,8 C 12,6 C 10,2 C 55 % 83 % 89 % 1019,8 hPa 0,0 l/m 0,0 km/h (0 Bft) SW 225 10,0 C 12,8 C 0,0 km/h (0 Bft)
24.07.2021 00:32 25,0 C 12,8 C 12,3 C 10,2 C 55 % 83 % 89 % 1019,8 hPa 0,0 l/m 0,0 km/h (0 Bft) W-SW 247 10,0 C 12,8 C 0,0 km/h (0 Bft)
24.07.2021 00:30 25,0 C 12,9 C 12,2 C 10,3 C 55 % 83 % 88 % 1019,8 hPa 0,0 l/m 0,0 km/h (0 Bft) N 360 10,1 C 12,9 C 0,0 km/h (0 Bft)
24.07.2021 00:28 25,0 C 12,9 C 12,1 C 10,3 C 55 % 83 % 88 % 1019,8 hPa 0,0 l/m 0,0 km/h (0 Bft) S 180 10,1 C 12,9 C 0,0 km/h (0 Bft)
24.07.2021 00:26 25,0 C 13,0 C 12,2 C 10,3 C 55 % 82 % 88 % 1019,8 hPa 0,0 l/m 0,0 km/h (0 Bft) O-SO 112 10,0 C 13,0 C 0,0 km/h (0 Bft)
24.07.2021 00:24 25,0 C 13,0 C 11,9 C 10,4 C 55 % 82 % 88 % 1019,8 hPa 0,0 l/m 0,0 km/h (0 Bft) O-SO 112 10,0 C 13,0 C 0,0 km/h (0 Bft)
24.07.2021 00:22 25,0 C 13,1 C 12,2 C 10,4 C 55 % 82 % 88 % 1019,8 hPa 0,0 l/m 0,0 km/h (0 Bft) N 360 10,1 C 13,1 C 0,0 km/h (0 Bft)
24.07.2021 00:20 25,0 C 13,2 C 12,4 C 10,4 C 55 % 82 % 88 % 1019,8 hPa 0,0 l/m 0,0 km/h (0 Bft) O-SO 112 10,2 C 13,2 C 0,0 km/h (0 Bft)
24.07.2021 00:18 25,0 C 13,2 C 12,9 C 10,5 C 55 % 82 % 88 % 1020,0 hPa 0,0 l/m 0,0 km/h (0 Bft) SO 135 10,2 C 13,2 C 0,0 km/h (0 Bft)
24.07.2021 00:16 25,0 C 13,3 C 12,7 C 10,5 C 55 % 82 % 88 % 1020,0 hPa 0,0 l/m 0,0 km/h (0 Bft) SW 225 10,3 C 13,3 C 0,0 km/h (0 Bft)
24.07.2021 00:14 25,0 C 13,3 C 12,5 C 10,6 C 55 % 82 % 88 % 1020,0 hPa 0,0 l/m 0,0 km/h (0 Bft) N 360 10,3 C 13,3 C 0,0 km/h (0 Bft)
24.07.2021 00:12 25,0 C 13,3 C 12,6 C 10,6 C 55 % 82 % 88 % 1020,0 hPa 0,0 l/m 0,0 km/h (0 Bft) SO 135 10,3 C 13,3 C 0,0 km/h (0 Bft)
24.07.2021 00:10 25,0 C 13,4 C 12,8 C 10,6 C 55 % 82 % 88 % 1020,0 hPa 0,0 l/m 0,0 km/h (0 Bft) W-NW 292 10,4 C 13,4 C 0,0 km/h (0 Bft)
24.07.2021 00:08 25,0 C 13,4 C 12,7 C 10,6 C 55 % 82 % 88 % 1020,0 hPa 0,0 l/m 0,0 km/h (0 Bft) W-SW 247 10,4 C 13,4 C 0,0 km/h (0 Bft)
24.07.2021 00:06 25,0 C 13,5 C 12,9 C 10,7 C 55 % 82 % 88 % 1020,0 hPa 0,0 l/m 0,0 km/h (0 Bft) O-SO 112 10,5 C 13,5 C 0,0 km/h (0 Bft)
24.07.2021 00:04 25,0 C 13,5 C 12,3 C 10,7 C 55 % 82 % 88 % 1020,0 hPa 0,0 l/m 0,0 km/h (0 Bft) W-NW 292 10,5 C 13,5 C 0,0 km/h (0 Bft)
24.07.2021 00:02 25,0 C 13,5 C 12,5 C 10,7 C 55 % 82 % 88 % 1020,0 hPa 0,0 l/m 0,0 km/h (0 Bft) O-NO 67 10,5 C 13,5 C 0,0 km/h (0 Bft)
24.07.2021 00:00 25,0 C 13,6 C 12,7 C 10,8 C 55 % 82 % 88 % 1020,0 hPa 0,0 l/m 0,0 km/h (0 Bft) N 360 10,6 C 13,6 C 0,0 km/h (0 Bft)
_ Min-Zeit 08:38 03:58 03:08 05:08 09:52 15:00 15:14 19:40 - 00:00 - - 03:58 03:58 00:00
Minimum _ 24,4 C 11,0 C 10,8 C 7,5 C 52 % 47 % 47 % 1015,6 hPa - 0,0 km/h (0 Bft) - - 8,7 C 11,0 C 0,0 km/h (0 Bft)
_ Max-Zeit 22:16 15:34 13:08 15:34 00:00 22:36 06:24 00:00 21:40 21:30 - - 15:34 15:34 22:32
Maximum _ 25,6 C 28,8 C 43,7 C 30,2 C 55 % 88 % 92 % 1020,0 hPa 2,7 l/m 15,3 km/h
NW (3 Bft)
- - 17,6 C 28,8 C 56,0 km/h
NO (7 Bft)
Durchschnitt _ 25,0 C 20,3 C 21,6 C 18,8 C 54 % 69 % 73 % 1017,5 hPa #15,1 l/m 0,4 km/h (0 Bft) S-SO - 13,8 C 20,2 C 1,1 km/h (1 Bft)